Wetterdaten: Donnerstag, 09.01.2014
Datum Zeit Temp. Aussen +5cm Feuchte Auss Luftdruck Regen Sonnenschein Regendauer UV Solar Windben
09.01.2014 00:00 7,3 C 5,6 C 93 % 1014,4 hPa 0,0 l/m 0 min 0 min 0,0 UV-I 0 W/m 7,7 km/h (2 Bft)
09.01.2014 00:02 7,3 C 5,6 C 93 % 1014,3 hPa 0,0 l/m 0 min 0 min 0,0 UV-I 0 W/m 5,1 km/h (1 Bft)
09.01.2014 00:04 7,2 C 5,6 C 93 % 1014,2 hPa 0,0 l/m 0 min 0 min 0,0 UV-I 0 W/m 5,1 km/h (1 Bft)
09.01.2014 00:06 7,2 C 5,6 C 93 % 1014,3 hPa 0,0 l/m 0 min 0 min 0,0 UV-I 0 W/m 7,7 km/h (2 Bft)
09.01.2014 00:08 7,2 C 5,6 C 93 % 1014,2 hPa 0,0 l/m 0 min 0 min 0,0 UV-I 0 W/m 7,7 km/h (2 Bft)
09.01.2014 00:10 7,2 C 5,6 C 93 % 1014,2 hPa 0,0 l/m 0 min 0 min 0,0 UV-I 0 W/m 7,7 km/h (2 Bft)
09.01.2014 00:12 7,2 C 5,6 C 93 % 1014,2 hPa 0,0 l/m 0 min 0 min 0,0 UV-I 0 W/m 12,9 km/h (3 Bft)
09.01.2014 00:14 7,2 C 5,6 C 93 % 1014,1 hPa 0,0 l/m 0 min 0 min 0,0 UV-I 0 W/m 10,3 km/h (2 Bft)
09.01.2014 00:16 7,2 C 5,6 C 93 % 1014,0 hPa 0,0 l/m 0 min 0 min 0,0 UV-I 0 W/m 7,7 km/h (2 Bft)
09.01.2014 00:18 7,2 C 5,6 C 93 % 1014,0 hPa 0,0 l/m 0 min 0 min 0,0 UV-I 0 W/m 10,3 km/h (2 Bft)
09.01.2014 00:20 7,2 C 5,6 C 93 % 1013,9 hPa 0,0 l/m 0 min 0 min 0,0 UV-I 0 W/m 10,3 km/h (2 Bft)
09.01.2014 00:22 7,2 C 5,6 C 93 % 1013,9 hPa 0,0 l/m 0 min 0 min 0,0 UV-I 0 W/m 5,1 km/h (1 Bft)
09.01.2014 00:24 7,2 C 5,6 C 93 % 1013,9 hPa 0,0 l/m 0 min 0 min 0,0 UV-I 0 W/m 7,7 km/h (2 Bft)
09.01.2014 00:26 7,2 C 5,6 C 93 % 1013,9 hPa 0,0 l/m 0 min 0 min 0,0 UV-I 0 W/m 10,3 km/h (2 Bft)
09.01.2014 00:28 7,1 C 5,6 C 93 % 1013,8 hPa 0,0 l/m 0 min 0 min 0,0 UV-I 0 W/m 5,1 km/h (1 Bft)
09.01.2014 00:30 7,1 C 5,6 C 93 % 1013,7 hPa 0,0 l/m 0 min 0 min 0,0 UV-I 0 W/m 10,3 km/h (2 Bft)
09.01.2014 00:32 7,1 C 5,6 C 93 % 1013,6 hPa 0,0 l/m 0 min 0 min 0,0 UV-I 0 W/m 10,3 km/h (2 Bft)
09.01.2014 00:34 7,1 C 5,6 C 93 % 1013,7 hPa 0,0 l/m 0 min 0 min 0,0 UV-I 0 W/m 5,1 km/h (1 Bft)
09.01.2014 00:36 7,1 C 5,6 C 93 % 1013,6 hPa 0,0 l/m 0 min 0 min 0,0 UV-I 0 W/m 10,3 km/h (2 Bft)
09.01.2014 00:38 7,1 C 5,6 C 93 % 1013,6 hPa 0,0 l/m 0 min 0 min 0,0 UV-I 0 W/m 7,7 km/h (2 Bft)
09.01.2014 00:40 7,1 C 5,6 C 93 % 1013,5 hPa 0,0 l/m 0 min 0 min 0,0 UV-I 0 W/m 7,7 km/h (2 Bft)
09.01.2014 00:42 7,1 C 5,6 C 93 % 1013,5 hPa 0,0 l/m 0 min 0 min 0,0 UV-I 0 W/m 10,3 km/h (2 Bft)
09.01.2014 00:44 7,1 C 5,6 C 93 % 1013,5 hPa 0,0 l/m 0 min 0 min 0,0 UV-I 0 W/m 7,7 km/h (2 Bft)
09.01.2014 00:46 7,1 C 5,6 C 93 % 1013,4 hPa 0,0 l/m 0 min 0 min 0,0 UV-I 0 W/m 12,9 km/h (3 Bft)
09.01.2014 00:48 7,1 C 5,6 C 93 % 1013,4 hPa 0,0 l/m 0 min 0 min 0,0 UV-I 0 W/m 7,7 km/h (2 Bft)
09.01.2014 00:50 7,1 C 5,6 C 93 % 1013,4 hPa 0,0 l/m 0 min 0 min 0,0 UV-I 0 W/m 2,6 km/h (1 Bft)
09.01.2014 00:52 7,1 C 5,6 C 93 % 1013,3 hPa 0,0 l/m 0 min 0 min 0,0 UV-I 0 W/m 10,3 km/h (2 Bft)
09.01.2014 00:54 7,1 C 5,6 C 93 % 1013,3 hPa 0,0 l/m 0 min 0 min 0,0 UV-I 0 W/m 7,7 km/h (2 Bft)
09.01.2014 00:56 7,1 C 5,6 C 93 % 1013,2 hPa 0,0 l/m 0 min 0 min 0,0 UV-I 0 W/m 10,3 km/h (2 Bft)
09.01.2014 00:58 7,1 C 5,6 C 94 % 1013,2 hPa 0,0 l/m 0 min 0 min 0,0 UV-I 0 W/m 5,1 km/h (1 Bft)
09.01.2014 01:00 7,1 C 5,6 C 94 % 1013,2 hPa 0,0 l/m 0 min 0 min 0,0 UV-I 0 W/m 12,9 km/h (3 Bft)
09.01.2014 01:02 7,1 C 5,6 C 94 % 1013,2 hPa 0,0 l/m 0 min 0 min 0,0 UV-I 0 W/m 10,3 km/h (2 Bft)
09.01.2014 01:04 7,1 C 6,1 C 94 % 1013,0 hPa 0,0 l/m 0 min 0 min 0,0 UV-I 0 W/m 10,3 km/h (2 Bft)
09.01.2014 01:06 7,1 C 5,6 C 94 % 1013,0 hPa 0,0 l/m 0 min 0 min 0,0 UV-I 0 W/m 12,9 km/h (3 Bft)
09.01.2014 01:08 7,2 C 5,6 C 94 % 1013,0 hPa 0,0 l/m 0 min 0 min 0,0 UV-I 0 W/m 7,7 km/h (2 Bft)
09.01.2014 01:10 7,2 C 5,6 C 94 % 1012,9 hPa 0,0 l/m 0 min 0 min 0,0 UV-I 0 W/m 5,1 km/h (1 Bft)
09.01.2014 01:12 7,2 C 5,6 C 94 % 1012,9 hPa 0,0 l/m 0 min 0 min 0,0 UV-I 0 W/m 5,1 km/h (1 Bft)
09.01.2014 01:14 7,2 C 6,1 C 94 % 1012,9 hPa 0,0 l/m 0 min 0 min 0,0 UV-I 0 W/m 7,7 km/h (2 Bft)
09.01.2014 01:16 7,2 C 5,6 C 94 % 1012,8 hPa 0,0 l/m 0 min 0 min 0,0 UV-I 0 W/m 7,7 km/h (2 Bft)
09.01.2014 01:18 7,2 C 6,1 C 94 % 1012,8 hPa 0,0 l/m 0 min 0 min 0,0 UV-I 0 W/m 10,3 km/h (2 Bft)
09.01.2014 01:20 7,2 C 6,1 C 94 % 1012,7 hPa 0,0 l/m 0 min 0 min 0,0 UV-I 0 W/m 7,7 km/h (2 Bft)
09.01.2014 01:22 7,2 C 6,1 C 94 % 1012,7 hPa 0,0 l/m 0 min 0 min 0,0 UV-I 0 W/m 7,7 km/h (2 Bft)
09.01.2014 01:24 7,2 C 6,1 C 94 % 1012,6 hPa 0,0 l/m 0 min 0 min 0,0 UV-I 0 W/m 2,6 km/h (1 Bft)
09.01.2014 01:26 7,2 C 6,1 C 94 % 1012,6 hPa 0,0 l/m 0 min 0 min 0,0 UV-I 0 W/m 5,1 km/h (1 Bft)
09.01.2014 01:28 7,2 C 6,1 C 94 % 1012,5 hPa 0,0 l/m 0 min 0 min 0,0 UV-I 0 W/m 5,1 km/h (1 Bft)
09.01.2014 01:30 7,2 C 5,6 C 94 % 1012,6 hPa 0,0 l/m 0 min 0 min 0,0 UV-I 0 W/m 7,7 km/h (2 Bft)
09.01.2014 01:32 7,2 C 5,6 C 94 % 1012,6 hPa 0,0 l/m 0 min 0 min 0,0 UV-I 0 W/m 10,3 km/h (2 Bft)
09.01.2014 01:34 7,2 C 6,1 C 94 % 1012,6 hPa 0,0 l/m 0 min 0 min 0,0 UV-I 0 W/m 7,7 km/h (2 Bft)
09.01.2014 01:36 7,2 C 6,1 C 94 % 1012,5 hPa 0,0 l/m 0 min 0 min 0,0 UV-I 0 W/m 0,0 km/h (0 Bft)
09.01.2014 01:38 7,2 C 6,1 C 94 % 1012,4 hPa 0,0 l/m 0 min 0 min 0,0 UV-I 0 W/m 7,7 km/h (2 Bft)
09.01.2014 01:40 7,2 C 6,1 C 94 % 1012,4 hPa 0,0 l/m 0 min 0 min 0,0 UV-I 0 W/m 10,3 km/h (2 Bft)
09.01.2014 01:42 7,2 C 6,1 C 94 % 1012,3 hPa 0,0 l/m 0 min 0 min 0,0 UV-I 0 W/m 10,3 km/h (2 Bft)
09.01.2014 01:44 7,3 C 6,1 C 94 % 1012,3 hPa 0,0 l/m 0 min 0 min 0,0 UV-I 0 W/m 0,0 km/h (0 Bft)
09.01.2014 01:46 7,3 C 6,1 C 94 % 1012,3 hPa 0,0 l/m 0 min 0 min 0,0 UV-I 0 W/m 5,1 km/h (1 Bft)
09.01.2014 01:48 7,3 C 6,1 C 94 % 1012,3 hPa 0,0 l/m 0 min 0 min 0,0 UV-I 0 W/m 7,7 km/h (2 Bft)
09.01.2014 01:50 7,3 C 6,1 C 94 % 1012,3 hPa 0,0 l/m 0 min 0 min 0,0 UV-I 0 W/m 18,0 km/h (3 Bft)
09.01.2014 01:52 7,3 C 6,1 C 94 % 1012,3 hPa 0,0 l/m 0 min 0 min 0,0 UV-I 0 W/m 10,3 km/h (2 Bft)
09.01.2014 01:54 7,3 C 6,1 C 94 % 1012,2 hPa 0,0 l/m 0 min 0 min 0,0 UV-I 0 W/m 15,4 km/h (3 Bft)
09.01.2014 01:56 7,4 C 6,1 C 94 % 1012,2 hPa 0,0 l/m 0 min 0 min 0,0 UV-I 0 W/m 10,3 km/h (2 Bft)
09.01.2014 01:58 7,4 C 6,1 C 95 % 1012,1 hPa 0,0 l/m 0 min 0 min 0,0 UV-I 0 W/m 10,3 km/h (2 Bft)
09.01.2014 02:00 7,4 C 6,1 C 95 % 1012,1 hPa 0,0 l/m 0 min 0 min 0,0 UV-I 0 W/m 12,9 km/h (3 Bft)
09.01.2014 02:02 7,4 C 6,1 C 95 % 1012,1 hPa 0,0 l/m 0 min 0 min 0,0 UV-I 0 W/m 12,9 km/h (3 Bft)
09.01.2014 02:04 7,4 C 6,7 C 95 % 1012,1 hPa 0,0 l/m 0 min 0 min 0,0 UV-I 0 W/m 7,7 km/h (2 Bft)
09.01.2014 02:06 7,5 C 6,7 C 95 % 1012,0 hPa 0,0 l/m 0 min 0 min 0,0 UV-I 0 W/m 12,9 km/h (3 Bft)
09.01.2014 02:08 7,5 C 6,7 C 95 % 1012,0 hPa 0,0 l/m 0 min 0 min 0,0 UV-I 0 W/m 15,4 km/h (3 Bft)
09.01.2014 02:10 7,6 C 6,7 C 95 % 1011,9 hPa 0,0 l/m 0 min 0 min 0,0 UV-I 0 W/m 12,9 km/h (3 Bft)
09.01.2014 02:12 7,6 C 6,7 C 95 % 1011,8 hPa 0,0 l/m 0 min 0 min 0,0 UV-I 0 W/m 10,3 km/h (2 Bft)
09.01.2014 02:14 7,6 C 6,7 C 95 % 1011,8 hPa 0,0 l/m 0 min 0 min 0,0 UV-I 0 W/m 15,4 km/h (3 Bft)
09.01.2014 02:16 7,6 C 6,7 C 95 % 1011,8 hPa 0,0 l/m 0 min 0 min 0,0 UV-I 0 W/m 12,9 km/h (3 Bft)
09.01.2014 02:18 7,7 C 6,7 C 95 % 1011,7 hPa 0,0 l/m 0 min 0 min 0,0 UV-I 0 W/m 10,3 km/h (2 Bft)
09.01.2014 02:20 7,7 C 6,7 C 95 % 1011,8 hPa 0,0 l/m 0 min 0 min 0,0 UV-I 0 W/m 10,3 km/h (2 Bft)
09.01.2014 02:22 7,7 C 6,7 C 95 % 1011,8 hPa 0,0 l/m 0 min 0 min 0,0 UV-I 0 W/m 15,4 km/h (3 Bft)
09.01.2014 02:24 7,7 C 6,7 C 95 % 1011,8 hPa 0,0 l/m 0 min 0 min 0,0 UV-I 0 W/m 15,4 km/h (3 Bft)
09.01.2014 02:26 7,8 C 6,7 C 95 % 1011,8 hPa 0,0 l/m 0 min 0 min 0,0 UV-I 0 W/m 10,3 km/h (2 Bft)
09.01.2014 02:28 7,8 C 6,7 C 95 % 1011,8 hPa 0,0 l/m 0 min 0 min 0,0 UV-I 0 W/m 10,3 km/h (2 Bft)
09.01.2014 02:30 7,8 C 6,7 C 95 % 1011,8 hPa 0,0 l/m 0 min 0 min 0,0 UV-I 0 W/m 10,3 km/h (2 Bft)
09.01.2014 02:32 7,8 C 6,7 C 95 % 1011,6 hPa 0,0 l/m 0 min 0 min 0,0 UV-I 0 W/m 10,3 km/h (2 Bft)
09.01.2014 02:34 7,8 C 6,7 C 95 % 1011,6 hPa 0,0 l/m 0 min 0 min 0,0 UV-I 0 W/m 7,7 km/h (2 Bft)
09.01.2014 02:36 7,9 C 6,7 C 95 % 1011,7 hPa 0,0 l/m 0 min 0 min 0,0 UV-I 0 W/m 10,3 km/h (2 Bft)
09.01.2014 02:38 7,9 C 6,7 C 95 % 1011,6 hPa 0,0 l/m 0 min 0 min 0,0 UV-I 0 W/m 10,3 km/h (2 Bft)
09.01.2014 02:40 7,9 C 6,7 C 95 % 1011,6 hPa 0,0 l/m 0 min 0 min 0,0 UV-I 0 W/m 10,3 km/h (2 Bft)
09.01.2014 02:42 7,9 C 6,7 C 95 % 1011,5 hPa 0,0 l/m 0 min 2 min 0,0 UV-I 0 W/m 12,9 km/h (3 Bft)
09.01.2014 02:44 7,9 C 6,7 C 95 % 1011,5 hPa 0,0 l/m 0 min 2 min 0,0 UV-I 0 W/m 12,9 km/h (3 Bft)
09.01.2014 02:46 8,0 C 6,7 C 95 % 1011,5 hPa 0,0 l/m 0 min 2 min 0,0 UV-I 0 W/m 7,7 km/h (2 Bft)
09.01.2014 02:48 8,0 C 6,7 C 95 % 1011,5 hPa 0,0 l/m 0 min 2 min 0,0 UV-I 0 W/m 5,1 km/h (1 Bft)
09.01.2014 02:50 8,1 C 6,7 C 95 % 1011,5 hPa 0,0 l/m 0 min 2 min 0,0 UV-I 0 W/m 7,7 km/h (2 Bft)
09.01.2014 02:52 8,1 C 6,7 C 95 % 1011,6 hPa 0,0 l/m 0 min 2 min 0,0 UV-I 0 W/m 2,6 km/h (1 Bft)
09.01.2014 02:54 8,1 C 6,7 C 95 % 1011,6 hPa 0,0 l/m 0 min 2 min 0,0 UV-I 0 W/m 7,7 km/h (2 Bft)
09.01.2014 02:56 8,1 C 6,7 C 95 % 1011,6 hPa 0,0 l/m 0 min 2 min 0,0 UV-I 0 W/m 5,1 km/h (1 Bft)
09.01.2014 02:58 8,2 C 6,7 C 95 % 1011,5 hPa 0,0 l/m 0 min 2 min 0,0 UV-I 0 W/m 10,3 km/h (2 Bft)
09.01.2014 03:00 8,2 C 6,7 C 95 % 1011,5 hPa 0,0 l/m 0 min 2 min 0,0 UV-I 0 W/m 5,1 km/h (1 Bft)
09.01.2014 03:02 8,2 C 6,7 C 95 % 1011,5 hPa 0,2 l/m 0 min 2 min 0,0 UV-I 0 W/m 7,7 km/h (2 Bft)
09.01.2014 03:04 8,2 C 6,7 C 95 % 1011,5 hPa 0,0 l/m 0 min 2 min 0,0 UV-I 0 W/m 10,3 km/h (2 Bft)
09.01.2014 03:06 8,3 C 6,7 C 95 % 1011,4 hPa 0,0 l/m 0 min 2 min 0,0 UV-I 0 W/m 10,3 km/h (2 Bft)
09.01.2014 03:08 8,3 C 6,7 C 95 % 1011,4 hPa 0,0 l/m 0 min 2 min 0,0 UV-I 0 W/m 2,6 km/h (1 Bft)
09.01.2014 03:10 8,3 C 7,2 C 96 % 1011,3 hPa 0,0 l/m 0 min 2 min 0,0 UV-I 0 W/m 12,9 km/h (3 Bft)
09.01.2014 03:12 8,4 C 7,2 C 96 % 1011,3 hPa 0,0 l/m 0 min 2 min 0,0 UV-I 0 W/m 7,7 km/h (2 Bft)
09.01.2014 03:14 8,4 C 7,2 C 96 % 1011,2 hPa 0,0 l/m 0 min 2 min 0,0 UV-I 0 W/m 0,0 km/h (0 Bft)
09.01.2014 03:16 8,4 C 7,2 C 96 % 1011,1 hPa 0,0 l/m 0 min 2 min 0,0 UV-I 0 W/m 10,3 km/h (2 Bft)
09.01.2014 03:18 8,5 C 7,2 C 96 % 1011,1 hPa 0,2 l/m 0 min 2 min 0,0 UV-I 0 W/m 10,3 km/h (2 Bft)
09.01.2014 03:20 8,6 C 7,2 C 96 % 1011,1 hPa 0,0 l/m 0 min 2 min 0,0 UV-I 0 W/m 12,9 km/h (3 Bft)
09.01.2014 03:22 8,6 C 7,2 C 96 % 1011,1 hPa 0,0 l/m 0 min 2 min 0,0 UV-I 0 W/m 10,3 km/h (2 Bft)
09.01.2014 03:24 8,6 C 7,2 C 96 % 1011,2 hPa 0,0 l/m 0 min 2 min 0,0 UV-I 0 W/m 2,6 km/h (1 Bft)
09.01.2014 03:26 8,7 C 7,2 C 96 % 1011,1 hPa 0,0 l/m 0 min 2 min 0,0 UV-I 0 W/m 5,1 km/h (1 Bft)
09.01.2014 03:28 8,7 C 7,2 C 96 % 1011,1 hPa 0,0 l/m 0 min 2 min 0,0 UV-I 0 W/m 10,3 km/h (2 Bft)
09.01.2014 03:30 8,7 C 7,2 C 96 % 1011,1 hPa 0,0 l/m 0 min 2 min 0,0 UV-I 0 W/m 7,7 km/h (2 Bft)
09.01.2014 03:32 8,7 C 7,2 C 96 % 1011,0 hPa 0,0 l/m 0 min 2 min 0,0 UV-I 0 W/m 10,3 km/h (2 Bft)
09.01.2014 03:34 8,7 C 7,2 C 96 % 1010,9 hPa 0,0 l/m 0 min 2 min 0,0 UV-I 0 W/m 10,3 km/h (2 Bft)
09.01.2014 03:36 8,8 C 7,2 C 96 % 1010,9 hPa 0,0 l/m 0 min 2 min 0,0 UV-I 0 W/m 7,7 km/h (2 Bft)
09.01.2014 03:38 8,8 C 7,2 C 96 % 1010,9 hPa 0,2 l/m 0 min 2 min 0,0 UV-I 0 W/m 10,3 km/h (2 Bft)
09.01.2014 03:40 8,8 C 7,2 C 96 % 1010,8 hPa 0,0 l/m 0 min 2 min 0,0 UV-I 0 W/m 10,3 km/h (2 Bft)
09.01.2014 03:42 8,9 C 7,2 C 96 % 1010,7 hPa 0,0 l/m 0 min 2 min 0,0 UV-I 0 W/m 15,4 km/h (3 Bft)
09.01.2014 03:44 8,9 C 7,2 C 96 % 1010,7 hPa 0,0 l/m 0 min 2 min 0,0 UV-I 0 W/m 7,7 km/h (2 Bft)
09.01.2014 03:46 8,9 C 7,2 C 96 % 1010,7 hPa 0,0 l/m 0 min 2 min 0,0 UV-I 0 W/m 7,7 km/h (2 Bft)
09.01.2014 03:48 8,9 C 7,2 C 96 % 1010,7 hPa 0,0 l/m 0 min 2 min 0,0 UV-I 0 W/m 5,1 km/h (1 Bft)
09.01.2014 03:50 8,9 C 7,8 C 96 % 1010,7 hPa 0,0 l/m 0 min 2 min 0,0 UV-I 0 W/m 10,3 km/h (2 Bft)
09.01.2014 03:52 9,0 C 7,8 C 96 % 1010,7 hPa 0,0 l/m 0 min 2 min 0,0 UV-I 0 W/m 0,0 km/h (0 Bft)
09.01.2014 03:54 9,0 C 7,8 C 96 % 1010,6 hPa 0,2 l/m 0 min 2 min 0,0 UV-I 0 W/m 7,7 km/h (2 Bft)
09.01.2014 03:56 9,0 C 7,8 C 96 % 1010,6 hPa 0,0 l/m 0 min 2 min 0,0 UV-I 0 W/m 2,6 km/h (1 Bft)
09.01.2014 03:58 9,1 C 7,8 C 96 % 1010,5 hPa 0,2 l/m 0 min 2 min 0,0 UV-I 0 W/m 10,3 km/h (2 Bft)
09.01.2014 04:00 9,1 C 7,8 C 96 % 1010,4 hPa 0,0 l/m 0 min 2 min 0,0 UV-I 0 W/m 12,9 km/h (3 Bft)
09.01.2014 04:02 9,1 C 7,8 C 96 % 1010,5 hPa 0,0 l/m 0 min 2 min 0,0 UV-I 0 W/m 12,9 km/h (3 Bft)
09.01.2014 04:04 9,2 C 7,8 C 96 % 1010,4 hPa 0,2 l/m 0 min 2 min 0,0 UV-I 0 W/m 10,3 km/h (2 Bft)
09.01.2014 04:06 9,2 C 7,8 C 97 % 1010,4 hPa 0,0 l/m 0 min 2 min 0,0 UV-I 0 W/m 5,1 km/h (1 Bft)
09.01.2014 04:08 9,2 C 7,8 C 97 % 1010,5 hPa 0,2 l/m 0 min 2 min 0,0 UV-I 0 W/m 10,3 km/h (2 Bft)
09.01.2014 04:10 9,2 C 7,8 C 97 % 1010,5 hPa 0,0 l/m 0 min 2 min 0,0 UV-I 0 W/m 2,6 km/h (1 Bft)
09.01.2014 04:12 9,2 C 7,8 C 97 % 1010,4 hPa 0,0 l/m 0 min 2 min 0,0 UV-I 0 W/m 5,1 km/h (1 Bft)
09.01.2014 04:14 9,3 C 7,8 C 97 % 1010,4 hPa 0,2 l/m 0 min 2 min 0,0 UV-I 0 W/m 12,9 km/h (3 Bft)
09.01.2014 04:16 9,3 C 7,8 C 97 % 1010,4 hPa 0,0 l/m 0 min 2 min 0,0 UV-I 0 W/m 7,7 km/h (2 Bft)
09.01.2014 04:18 9,3 C 7,8 C 97 % 1010,4 hPa 0,0 l/m 0 min 2 min 0,0 UV-I 0 W/m 0,0 km/h (0 Bft)
09.01.2014 04:20 9,3 C 7,8 C 97 % 1010,2 hPa 0,0 l/m 0 min 2 min 0,0 UV-I 0 W/m 10,3 km/h (2 Bft)
09.01.2014 04:22 9,3 C 7,8 C 97 % 1010,0 hPa 0,0 l/m 0 min 2 min 0,0 UV-I 0 W/m 12,9 km/h (3 Bft)
09.01.2014 04:24 9,4 C 7,8 C 97 % 1010,1 hPa 0,0 l/m 0 min 2 min 0,0 UV-I 0 W/m 7,7 km/h (2 Bft)
09.01.2014 04:26 9,4 C 7,8 C 97 % 1010,0 hPa 0,2 l/m 0 min 2 min 0,0 UV-I 0 W/m 10,3 km/h (2 Bft)
09.01.2014 04:28 9,4 C 7,8 C 97 % 1010,0 hPa 0,0 l/m 0 min 2 min 0,0 UV-I 0 W/m 12,9 km/h (3 Bft)
09.01.2014 04:30 9,4 C 7,8 C 97 % 1009,9 hPa 0,0 l/m 0 min 2 min 0,0 UV-I 0 W/m 2,6 km/h (1 Bft)
09.01.2014 04:32 9,4 C 7,8 C 97 % 1009,7 hPa 0,0 l/m 0 min 2 min 0,0 UV-I 0 W/m 10,3 km/h (2 Bft)
09.01.2014 04:34 9,4 C 7,8 C 97 % 1009,5 hPa 0,0 l/m 0 min 2 min 0,0 UV-I 0 W/m 12,9 km/h (3 Bft)
09.01.2014 04:36 9,4 C 7,8 C 97 % 1009,5 hPa 0,0 l/m 0 min 2 min 0,0 UV-I 0 W/m 2,6 km/h (1 Bft)
09.01.2014 04:38 9,4 C 7,8 C 97 % 1009,4 hPa 0,0 l/m 0 min 2 min 0,0 UV-I 0 W/m 10,3 km/h (2 Bft)
09.01.2014 04:40 9,4 C 7,8 C 97 % 1009,3 hPa 0,0 l/m 0 min 0 min 0,0 UV-I 0 W/m 12,9 km/h (3 Bft)
09.01.2014 04:42 9,4 C 7,8 C 97 % 1009,2 hPa 0,0 l/m 0 min 0 min 0,0 UV-I 0 W/m 15,4 km/h (3 Bft)
09.01.2014 04:44 9,5 C 7,8 C 97 % 1009,3 hPa 0,0 l/m 0 min 0 min 0,0 UV-I 0 W/m 7,7 km/h (2 Bft)
09.01.2014 04:46 9,4 C 7,8 C 97 % 1009,3 hPa 0,0 l/m 0 min 0 min 0,0 UV-I 0 W/m 12,9 km/h (3 Bft)
09.01.2014 04:48 9,4 C 7,8 C 97 % 1009,3 hPa 0,0 l/m 0 min 0 min 0,0 UV-I 0 W/m 12,9 km/h (3 Bft)
09.01.2014 04:50 9,4 C 7,8 C 97 % 1009,3 hPa 0,0 l/m 0 min 0 min 0,0 UV-I 0 W/m 20,6 km/h (4 Bft)
09.01.2014 04:52 9,5 C 7,8 C 97 % 1009,2 hPa 0,0 l/m 0 min 0 min 0,0 UV-I 0 W/m 15,4 km/h (3 Bft)
09.01.2014 04:54 9,5 C 7,8 C 97 % 1009,2 hPa 0,0 l/m 0 min 0 min 0,0 UV-I 0 W/m 12,9 km/h (3 Bft)
09.01.2014 04:56 9,5 C 7,8 C 97 % 1009,2 hPa 0,0 l/m 0 min 0 min 0,0 UV-I 0 W/m 20,6 km/h (4 Bft)
09.01.2014 04:58 9,5 C 7,8 C 97 % 1009,2 hPa 0,0 l/m 0 min 0 min 0,0 UV-I 0 W/m 15,4 km/h (3 Bft)
09.01.2014 05:00 9,5 C 7,8 C 97 % 1009,1 hPa 0,0 l/m 0 min 0 min 0,0 UV-I 0 W/m 15,4 km/h (3 Bft)
09.01.2014 05:02 9,5 C 7,8 C 97 % 1009,1 hPa 0,0 l/m 0 min 0 min 0,0 UV-I 0 W/m 15,4 km/h (3 Bft)
09.01.2014 05:04 9,5 C 7,8 C 97 % 1009,0 hPa 0,0 l/m 0 min 0 min 0,0 UV-I 0 W/m 12,9 km/h (3 Bft)
09.01.2014 05:06 9,5 C 7,8 C 97 % 1008,9 hPa 0,0 l/m 0 min 0 min 0,0 UV-I 0 W/m 10,3 km/h (2 Bft)
09.01.2014 05:08 9,6 C 7,8 C 97 % 1008,9 hPa 0,0 l/m 0 min 0 min 0,0 UV-I 0 W/m 15,4 km/h (3 Bft)
09.01.2014 05:10 9,6 C 7,8 C 97 % 1008,8 hPa 0,0 l/m 0 min 0 min 0,0 UV-I 0 W/m 12,9 km/h (3 Bft)
09.01.2014 05:12 9,6 C 7,8 C 97 % 1008,7 hPa 0,0 l/m 0 min 0 min 0,0 UV-I 0 W/m 20,6 km/h (4 Bft)
09.01.2014 05:14 9,6 C 7,8 C 97 % 1008,7 hPa 0,0 l/m 0 min 0 min 0,0 UV-I 0 W/m 12,9 km/h (3 Bft)
09.01.2014 05:16 9,6 C 7,8 C 97 % 1008,6 hPa 0,0 l/m 0 min 0 min 0,0 UV-I 0 W/m 15,4 km/h (3 Bft)
09.01.2014 05:18 9,6 C 7,8 C 97 % 1008,5 hPa 0,0 l/m 0 min 0 min 0,0 UV-I 0 W/m 12,9 km/h (3 Bft)
09.01.2014 05:20 9,6 C 7,8 C 97 % 1008,5 hPa 0,0 l/m 0 min 0 min 0,0 UV-I 0 W/m 20,6 km/h (4 Bft)
09.01.2014 05:22 9,6 C 7,8 C 97 % 1008,6 hPa 0,0 l/m 0 min 0 min 0,0 UV-I 0 W/m 20,6 km/h (4 Bft)
09.01.2014 05:24 9,5 C 7,8 C 97 % 1008,5 hPa 0,0 l/m 0 min 0 min 0,0 UV-I 0 W/m 15,4 km/h (3 Bft)
09.01.2014 05:26 9,5 C 7,8 C 97 % 1008,5 hPa 0,0 l/m 0 min 0 min 0,0 UV-I 0 W/m 15,4 km/h (3 Bft)
09.01.2014 05:28 9,5 C 7,8 C 97 % 1008,4 hPa 0,0 l/m 0 min 0 min 0,0 UV-I 0 W/m 12,9 km/h (3 Bft)
09.01.2014 05:30 9,5 C 7,8 C 97 % 1008,5 hPa 0,0 l/m 0 min 0 min 0,0 UV-I 0 W/m 20,6 km/h (4 Bft)
09.01.2014 05:32 9,4 C 7,8 C 97 % 1008,5 hPa 0,0 l/m 0 min 0 min 0,0 UV-I 0 W/m 15,4 km/h (3 Bft)
09.01.2014 05:34 9,4 C 7,8 C 97 % 1008,4 hPa 0,0 l/m 0 min 0 min 0,0 UV-I 0 W/m 20,6 km/h (4 Bft)
09.01.2014 05:36 9,4 C 7,8 C 97 % 1008,2 hPa 0,0 l/m 0 min 0 min 0,0 UV-I 0 W/m 12,9 km/h (3 Bft)
09.01.2014 05:38 9,4 C 7,8 C 97 % 1008,1 hPa 0,0 l/m 0 min 0 min 0,0 UV-I 0 W/m 12,9 km/h (3 Bft)
09.01.2014 05:40 9,4 C 7,8 C 97 % 1008,1 hPa 0,0 l/m 0 min 0 min 0,0 UV-I 0 W/m 12,9 km/h (3 Bft)
09.01.2014 05:42 9,4 C 7,8 C 97 % 1008,2 hPa 0,0 l/m 0 min 0 min 0,0 UV-I 0 W/m 7,7 km/h (2 Bft)
09.01.2014 05:44 9,4 C 7,8 C 97 % 1008,2 hPa 0,0 l/m 0 min 0 min 0,0 UV-I 0 W/m 10,3 km/h (2 Bft)
09.01.2014 05:46 9,4 C 7,8 C 97 % 1008,2 hPa 0,0 l/m 0 min 0 min 0,0 UV-I 0 W/m 15,4 km/h (3 Bft)
09.01.2014 05:48 9,4 C 7,8 C 97 % 1008,1 hPa 0,0 l/m 0 min 0 min 0,0 UV-I 0 W/m 12,9 km/h (3 Bft)
09.01.2014 05:50 9,4 C 7,8 C 97 % 1008,0 hPa 0,0 l/m 0 min 0 min 0,0 UV-I 0 W/m 15,4 km/h (3 Bft)
09.01.2014 05:52 9,4 C 7,8 C 97 % 1008,0 hPa 0,0 l/m 0 min 0 min 0,0 UV-I 0 W/m 15,4 km/h (3 Bft)
09.01.2014 05:54 9,4 C 7,8 C 97 % 1008,0 hPa 0,0 l/m 0 min 0 min 0,0 UV-I 0 W/m 7,7 km/h (2 Bft)
09.01.2014 05:56 9,3 C 7,8 C 97 % 1007,8 hPa 0,0 l/m 0 min 0 min 0,0 UV-I 0 W/m 12,9 km/h (3 Bft)
09.01.2014 05:58 9,3 C 7,8 C 97 % 1007,8 hPa 0,0 l/m 0 min 0 min 0,0 UV-I 0 W/m 10,3 km/h (2 Bft)
09.01.2014 06:00 9,3 C 7,8 C 97 % 1007,9 hPa 0,0 l/m 0 min 0 min 0,0 UV-I 0 W/m 7,7 km/h (2 Bft)
09.01.2014 06:02 9,3 C 7,8 C 97 % 1007,9 hPa 0,0 l/m 0 min 0 min 0,0 UV-I 0 W/m 12,9 km/h (3 Bft)
09.01.2014 06:04 9,3 C 7,8 C 97 % 1007,9 hPa 0,0 l/m 0 min 0 min 0,0 UV-I 0 W/m 12,9 km/h (3 Bft)
09.01.2014 06:06 9,3 C 7,8 C 97 % 1007,9 hPa 0,0 l/m 0 min 0 min 0,0 UV-I 0 W/m 18,0 km/h (3 Bft)
09.01.2014 06:08 9,3 C 7,8 C 97 % 1007,9 hPa 0,0 l/m 0 min 0 min 0,0 UV-I 0 W/m 12,9 km/h (3 Bft)
09.01.2014 06:10 9,3 C 7,8 C 97 % 1007,9 hPa 0,0 l/m 0 min 0 min 0,0 UV-I 0 W/m 10,3 km/h (2 Bft)
09.01.2014 06:12 9,3 C 7,8 C 97 % 1007,8 hPa 0,0 l/m 0 min 0 min 0,0 UV-I 0 W/m 15,4 km/h (3 Bft)
09.01.2014 06:14 9,3 C 7,8 C 97 % 1007,7 hPa 0,0 l/m 0 min 0 min 0,0 UV-I 0 W/m 15,4 km/h (3 Bft)
09.01.2014 06:16 9,3 C 7,8 C 97 % 1007,6 hPa 0,0 l/m 0 min 0 min 0,0 UV-I 0 W/m 15,4 km/h (3 Bft)
09.01.2014 06:18 9,3 C 7,8 C 97 % 1007,6 hPa 0,0 l/m 0 min 0 min 0,0 UV-I 0 W/m 20,6 km/h (4 Bft)
09.01.2014 06:20 9,3 C 7,8 C 97 % 1007,4 hPa 0,0 l/m 0 min 0 min 0,0 UV-I 0 W/m 15,4 km/h (3 Bft)
09.01.2014 06:22 9,4 C 7,8 C 97 % 1007,4 hPa 0,0 l/m 0 min 0 min 0,0 UV-I 0 W/m 12,9 km/h (3 Bft)
09.01.2014 06:24 9,4 C 7,8 C 97 % 1007,4 hPa 0,0 l/m 0 min 0 min 0,0 UV-I 0 W/m 23,2 km/h (4 Bft)
09.01.2014 06:26 9,4 C 7,8 C 97 % 1007,4 hPa 0,0 l/m 0 min 0 min 0,0 UV-I 0 W/m 15,4 km/h (3 Bft)
09.01.2014 06:28 9,4 C 7,8 C 97 % 1007,3 hPa 0,0 l/m 0 min 0 min 0,0 UV-I 0 W/m 10,3 km/h (2 Bft)
09.01.2014 06:30 9,4 C 7,8 C 98 % 1007,2 hPa 0,0 l/m 0 min 0 min 0,0 UV-I 0 W/m 15,4 km/h (3 Bft)
09.01.2014 06:32 9,4 C 7,8 C 98 % 1007,2 hPa 0,0 l/m 0 min 0 min 0,0 UV-I 0 W/m 12,9 km/h (3 Bft)
09.01.2014 06:34 9,4 C 7,8 C 97 % 1007,2 hPa 0,0 l/m 0 min 0 min 0,0 UV-I 0 W/m 15,4 km/h (3 Bft)
09.01.2014 06:36 9,4 C 7,8 C 97 % 1007,2 hPa 0,0 l/m 0 min 0 min 0,0 UV-I 0 W/m 15,4 km/h (3 Bft)
09.01.2014 06:38 9,4 C 7,2 C 97 % 1007,1 hPa 0,0 l/m 0 min 0 min 0,0 UV-I 0 W/m 10,3 km/h (2 Bft)
09.01.2014 06:40 9,4 C 7,2 C 97 % 1007,2 hPa 0,0 l/m 0 min 0 min 0,0 UV-I 0 W/m 0,0 km/h (0 Bft)
09.01.2014 06:42 9,4 C 7,2 C 97 % 1007,3 hPa 0,0 l/m 0 min 0 min 0,0 UV-I 0 W/m 12,9 km/h (3 Bft)
09.01.2014 06:44 9,4 C 7,2 C 97 % 1007,2 hPa 0,0 l/m 0 min 0 min 0,0 UV-I 0 W/m 12,9 km/h (3 Bft)
09.01.2014 06:46 9,3 C 7,2 C 97 % 1007,1 hPa 0,0 l/m 0 min 0 min 0,0 UV-I 0 W/m 10,3 km/h (2 Bft)
09.01.2014 06:48 9,3 C 7,2 C 97 % 1007,1 hPa 0,0 l/m 0 min 0 min 0,0 UV-I 0 W/m 5,1 km/h (1 Bft)
09.01.2014 06:50 9,3 C 7,2 C 97 % 1007,1 hPa 0,0 l/m 0 min 0 min 0,0 UV-I 0 W/m 10,3 km/h (2 Bft)
09.01.2014 06:52 9,3 C 7,2 C 97 % 1007,1 hPa 0,0 l/m 0 min 0 min 0,0 UV-I 0 W/m 7,7 km/h (2 Bft)
09.01.2014 06:54 9,3 C 7,2 C 97 % 1007,1 hPa 0,0 l/m 0 min 0 min 0,0 UV-I 0 W/m 7,7 km/h (2 Bft)
09.01.2014 06:56 9,3 C 7,2 C 97 % 1007,1 hPa 0,0 l/m 0 min 0 min 0,0 UV-I 0 W/m 10,3 km/h (2 Bft)
09.01.2014 06:58 9,3 C 7,2 C 97 % 1007,1 hPa 0,0 l/m 0 min 0 min 0,0 UV-I 0 W/m 10,3 km/h (2 Bft)
09.01.2014 07:00 9,2 C 7,2 C 97 % 1007,1 hPa 0,0 l/m 0 min 0 min 0,0 UV-I 0 W/m 7,7 km/h (2 Bft)
09.01.2014 07:02 9,2 C 7,2 C 97 % 1007,0 hPa 0,0 l/m 0 min 0 min 0,0 UV-I 0 W/m 2,6 km/h (1 Bft)
09.01.2014 07:04 9,2 C 7,2 C 97 % 1007,0 hPa 0,0 l/m 0 min 0 min 0,0 UV-I 0 W/m 18,0 km/h (3 Bft)
09.01.2014 07:06 9,2 C 7,2 C 97 % 1006,9 hPa 0,0 l/m 0 min 0 min 0,0 UV-I 0 W/m 18,0 km/h (3 Bft)
09.01.2014 07:08 9,2 C 7,2 C 97 % 1006,9 hPa 0,0 l/m 0 min 0 min 0,0 UV-I 0 W/m 7,7 km/h (2 Bft)
09.01.2014 07:10 9,2 C 7,2 C 97 % 1006,9 hPa 0,0 l/m 0 min 0 min 0,0 UV-I 0 W/m 5,1 km/h (1 Bft)
09.01.2014 07:12 9,2 C 7,2 C 97 % 1006,9 hPa 0,0 l/m 0 min 0 min 0,0 UV-I 0 W/m 12,9 km/h (3 Bft)
09.01.2014 07:14 9,1 C 7,2 C 97 % 1006,9 hPa 0,0 l/m 0 min 0 min 0,0 UV-I 0 W/m 15,4 km/h (3 Bft)
09.01.2014 07:16 9,1 C 7,2 C 97 % 1006,8 hPa 0,0 l/m 0 min 0 min 0,0 UV-I 0 W/m 10,3 km/h (2 Bft)
09.01.2014 07:18 9,1 C 7,2 C 97 % 1006,7 hPa 0,0 l/m 0 min 0 min 0,0 UV-I 0 W/m 12,9 km/h (3 Bft)
09.01.2014 07:20 9,1 C 7,2 C 97 % 1006,8 hPa 0,0 l/m 0 min 0 min 0,0 UV-I 0 W/m 12,9 km/h (3 Bft)
09.01.2014 07:22 9,1 C 7,2 C 97 % 1006,7 hPa 0,0 l/m 0 min 0 min 0,0 UV-I 0 W/m 7,7 km/h (2 Bft)
09.01.2014 07:24 9,1 C 7,2 C 97 % 1006,8 hPa 0,0 l/m 0 min 0 min 0,0 UV-I 0 W/m 2,6 km/h (1 Bft)
09.01.2014 07:26 9,1 C 7,2 C 97 % 1006,7 hPa 0,0 l/m 0 min 0 min 0,0 UV-I 0 W/m 12,9 km/h (3 Bft)
09.01.2014 07:28 9,1 C 7,2 C 97 % 1006,8 hPa 0,0 l/m 0 min 0 min 0,0 UV-I 0 W/m 7,7 km/h (2 Bft)
09.01.2014 07:30 9,1 C 7,2 C 97 % 1006,7 hPa 0,0 l/m 0 min 0 min 0,0 UV-I 0 W/m 10,3 km/h (2 Bft)
09.01.2014 07:32 9,1 C 7,2 C 97 % 1006,6 hPa 0,0 l/m 0 min 0 min 0,0 UV-I 0 W/m 12,9 km/h (3 Bft)
09.01.2014 07:34 9,1 C 7,2 C 97 % 1006,6 hPa 0,0 l/m 0 min 0 min 0,0 UV-I 0 W/m 15,4 km/h (3 Bft)
09.01.2014 07:36 9,1 C 7,2 C 97 % 1006,5 hPa 0,0 l/m 0 min 0 min 0,0 UV-I 0 W/m 15,4 km/h (3 Bft)
09.01.2014 07:38 9,1 C 7,2 C 97 % 1006,4 hPa 0,0 l/m 0 min 0 min 0,0 UV-I 0 W/m 5,1 km/h (1 Bft)
09.01.2014 07:40 9,1 C 7,2 C 97 % 1006,4 hPa 0,0 l/m 0 min 0 min 0,0 UV-I 0 W/m 10,3 km/h (2 Bft)
09.01.2014 07:42 9,1 C 7,2 C 97 % 1006,3 hPa 0,0 l/m 0 min 0 min 0,0 UV-I 0 W/m 5,1 km/h (1 Bft)
09.01.2014 07:44 9,1 C 7,2 C 97 % 1006,3 hPa 0,0 l/m 0 min 0 min 0,0 UV-I 0 W/m 15,4 km/h (3 Bft)
09.01.2014 07:46 9,1 C 7,2 C 97 % 1006,3 hPa 0,0 l/m 0 min 0 min 0,0 UV-I 0 W/m 10,3 km/h (2 Bft)
09.01.2014 07:48 9,1 C 7,2 C 97 % 1006,3 hPa 0,0 l/m 0 min 0 min 0,0 UV-I 0 W/m 23,2 km/h (4 Bft)
09.01.2014 07:50 9,1 C 7,2 C 97 % 1006,3 hPa 0,0 l/m 0 min 0 min 0,0 UV-I 0 W/m 18,0 km/h (3 Bft)
09.01.2014 07:52 9,1 C 7,2 C 97 % 1006,2 hPa 0,0 l/m 0 min 0 min 0,0 UV-I 0 W/m 10,3 km/h (2 Bft)
09.01.2014 07:54 9,1 C 7,2 C 97 % 1006,2 hPa 0,0 l/m 0 min 0 min 0,0 UV-I 0 W/m 15,4 km/h (3 Bft)
09.01.2014 07:56 9,1 C 7,2 C 97 % 1006,1 hPa 0,0 l/m 0 min 0 min 0,0 UV-I 0 W/m 12,9 km/h (3 Bft)
09.01.2014 07:58 9,1 C 7,2 C 97 % 1006,3 hPa 0,0 l/m 0 min 0 min 0,0 UV-I 0 W/m 12,9 km/h (3 Bft)
09.01.2014 08:00 9,2 C 7,2 C 97 % 1006,2 hPa 0,0 l/m 0 min 0 min 0,0 UV-I 0 W/m 15,4 km/h (3 Bft)
09.01.2014 08:02 9,2 C 7,2 C 97 % 1006,2 hPa 0,0 l/m 0 min 0 min 0,0 UV-I 0 W/m 18,0 km/h (3 Bft)
09.01.2014 08:04 9,2 C 7,8 C 97 % 1006,2 hPa 0,0 l/m 0 min 0 min 0,0 UV-I 0 W/m 12,9 km/h (3 Bft)
09.01.2014 08:06 9,2 C 7,8 C 97 % 1006,1 hPa 0,0 l/m 0 min 0 min 0,0 UV-I 0 W/m 7,7 km/h (2 Bft)
09.01.2014 08:08 9,2 C 7,8 C 97 % 1006,2 hPa 0,0 l/m 0 min 0 min 0,0 UV-I 0 W/m 18,0 km/h (3 Bft)
09.01.2014 08:10 9,3 C 7,8 C 97 % 1006,2 hPa 0,0 l/m 0 min 0 min 0,0 UV-I 0 W/m 7,7 km/h (2 Bft)
09.01.2014 08:12 9,3 C 7,8 C 97 % 1006,1 hPa 0,0 l/m 0 min 0 min 0,0 UV-I 0 W/m 15,4 km/h (3 Bft)
09.01.2014 08:14 9,3 C 7,8 C 97 % 1006,2 hPa 0,0 l/m 0 min 0 min 0,0 UV-I 0 W/m 7,7 km/h (2 Bft)
09.01.2014 08:16 9,3 C 7,8 C 97 % 1006,1 hPa 0,0 l/m 0 min 0 min 0,0 UV-I 0 W/m 18,0 km/h (3 Bft)
09.01.2014 08:18 9,4 C 7,8 C 97 % 1006,1 hPa 0,0 l/m 0 min 0 min 0,0 UV-I 0 W/m 10,3 km/h (2 Bft)
09.01.2014 08:20 9,4 C 7,8 C 97 % 1006,1 hPa 0,0 l/m 0 min 0 min 0,0 UV-I 0 W/m 18,0 km/h (3 Bft)
09.01.2014 08:22 9,4 C 7,8 C 97 % 1006,0 hPa 0,0 l/m 0 min 0 min 0,0 UV-I 0 W/m 10,3 km/h (2 Bft)
09.01.2014 08:24 9,4 C 7,8 C 97 % 1005,7 hPa 0,0 l/m 0 min 0 min 0,0 UV-I 0 W/m 18,0 km/h (3 Bft)
09.01.2014 08:26 9,4 C 7,8 C 97 % 1005,6 hPa 0,0 l/m 0 min 0 min 0,0 UV-I 0 W/m 18,0 km/h (3 Bft)
09.01.2014 08:28 9,5 C 7,8 C 97 % 1005,7 hPa 0,0 l/m 0 min 0 min 0,0 UV-I 0 W/m 10,3 km/h (2 Bft)
09.01.2014 08:30 9,5 C 7,8 C 97 % 1005,7 hPa 0,0 l/m 0 min 0 min 0,0 UV-I 0 W/m 12,9 km/h (3 Bft)
09.01.2014 08:32 9,5 C 7,8 C 96 % 1005,8 hPa 0,0 l/m 0 min 0 min 0,0 UV-I 0 W/m 10,3 km/h (2 Bft)
09.01.2014 08:34 9,6 C 7,8 C 96 % 1005,7 hPa 0,0 l/m 0 min 0 min 0,0 UV-I 0 W/m 15,4 km/h (3 Bft)
09.01.2014 08:36 9,6 C 7,8 C 96 % 1005,7 hPa 0,0 l/m 0 min 0 min 0,0 UV-I 0 W/m 15,4 km/h (3 Bft)
09.01.2014 08:38 9,6 C 7,8 C 96 % 1006,0 hPa 0,0 l/m 0 min 0 min 0,0 UV-I 0 W/m 7,7 km/h (2 Bft)
09.01.2014 08:40 9,6 C 7,8 C 96 % 1005,8 hPa 0,0 l/m 0 min 0 min 0,0 UV-I 0 W/m 12,9 km/h (3 Bft)
09.01.2014 08:42 9,7 C 7,8 C 96 % 1005,8 hPa 0,0 l/m 0 min 0 min 0,0 UV-I 0 W/m 7,7 km/h (2 Bft)
09.01.2014 08:44 9,7 C 7,8 C 96 % 1005,7 hPa 0,0 l/m 0 min 0 min 0,0 UV-I 0 W/m 12,9 km/h (3 Bft)
09.01.2014 08:46 9,7 C 7,8 C 96 % 1005,8 hPa 0,0 l/m 0 min 0 min 0,0 UV-I 0 W/m 10,3 km/h (2 Bft)
09.01.2014 08:48 9,7 C 7,8 C 96 % 1005,8 hPa 0,0 l/m 0 min 0 min 0,0 UV-I 0 W/m 15,4 km/h (3 Bft)
09.01.2014 08:50 9,7 C 7,8 C 95 % 1005,9 hPa 0,0 l/m 0 min 0 min 0,0 UV-I 5 W/m 20,6 km/h (4 Bft)
09.01.2014 08:52 9,8 C 7,8 C 96 % 1005,8 hPa 0,0 l/m 0 min 0 min 0,0 UV-I 5 W/m 12,9 km/h (3 Bft)
09.01.2014 08:54 9,8 C 7,8 C 95 % 1005,7 hPa 0,0 l/m 0 min 0 min 0,0 UV-I 7 W/m 2,6 km/h (1 Bft)
09.01.2014 08:56 9,8 C 7,8 C 95 % 1005,7 hPa 0,0 l/m 0 min 0 min 0,0 UV-I 7 W/m 10,3 km/h (2 Bft)
09.01.2014 08:58 9,9 C 7,8 C 95 % 1005,8 hPa 0,0 l/m 0 min 0 min 0,0 UV-I 9 W/m 10,3 km/h (2 Bft)
09.01.2014 09:00 9,9 C 7,8 C 95 % 1005,8 hPa 0,0 l/m 0 min 0 min 0,0 UV-I 11 W/m 7,7 km/h (2 Bft)
09.01.2014 09:02 9,9 C 7,8 C 95 % 1005,7 hPa 0,0 l/m 0 min 0 min 0,0 UV-I 12 W/m 10,3 km/h (2 Bft)
09.01.2014 09:04 9,9 C 7,8 C 94 % 1005,8 hPa 0,0 l/m 0 min 0 min 0,0 UV-I 14 W/m 2,6 km/h (1 Bft)
09.01.2014 09:06 10,0 C 7,8 C 94 % 1005,7 hPa 0,0 l/m 0 min 0 min 0,0 UV-I 14 W/m 0,0 km/h (0 Bft)
09.01.2014 09:08 10,0 C 7,8 C 94 % 1005,7 hPa 0,0 l/m 0 min 0 min 0,0 UV-I 14 W/m 10,3 km/h (2 Bft)
09.01.2014 09:10 10,0 C 7,8 C 94 % 1005,6 hPa 0,0 l/m 0 min 0 min 0,0 UV-I 14 W/m 23,2 km/h (4 Bft)
09.01.2014 09:12 10,0 C 7,8 C 93 % 1005,7 hPa 0,0 l/m 0 min 0 min 0,0 UV-I 16 W/m 10,3 km/h (2 Bft)
09.01.2014 09:14 10,0 C 7,8 C 93 % 1005,7 hPa 0,0 l/m 0 min 0 min 0,0 UV-I 16 W/m 15,4 km/h (3 Bft)
09.01.2014 09:16 10,0 C 7,8 C 93 % 1005,8 hPa 0,0 l/m 0 min 0 min 0,0 UV-I 18 W/m 10,3 km/h (2 Bft)
09.01.2014 09:18 10,1 C 7,8 C 93 % 1005,7 hPa 0,0 l/m 0 min 0 min 0,0 UV-I 16 W/m 10,3 km/h (2 Bft)
09.01.2014 09:20 10,1 C 7,8 C 93 % 1005,9 hPa 0,0 l/m 0 min 0 min 0,0 UV-I 11 W/m 10,3 km/h (2 Bft)
09.01.2014 09:22 10,1 C 7,8 C 92 % 1005,9 hPa 0,0 l/m 0 min 0 min 0,0 UV-I 11 W/m 10,3 km/h (2 Bft)
09.01.2014 09:24 10,1 C 7,8 C 92 % 1006,0 hPa 0,0 l/m 0 min 0 min 0,0 UV-I 12 W/m 0,0 km/h (0 Bft)
09.01.2014 09:26 10,2 C 7,8 C 92 % 1006,0 hPa 0,0 l/m 0 min 0 min 0,0 UV-I 9 W/m 12,9 km/h (3 Bft)
09.01.2014 09:28 10,2 C 7,8 C 92 % 1006,0 hPa 0,0 l/m 0 min 0 min 0,0 UV-I 9 W/m 10,3 km/h (2 Bft)
09.01.2014 09:30 10,2 C 7,8 C 92 % 1006,0 hPa 0,0 l/m 0 min 0 min 0,0 UV-I 7 W/m 10,3 km/h (2 Bft)
09.01.2014 09:32 10,3 C 8,3 C 92 % 1006,0 hPa 0,0 l/m 0 min 0 min 0,0 UV-I 9 W/m 18,0 km/h (3 Bft)
09.01.2014 09:34 10,3 C 8,3 C 91 % 1005,9 hPa 0,0 l/m 0 min 0 min 0,0 UV-I 9 W/m 15,4 km/h (3 Bft)
09.01.2014 09:36 10,4 C 8,3 C 91 % 1005,9 hPa 0,0 l/m 0 min 0 min 0,0 UV-I 11 W/m 15,4 km/h (3 Bft)
09.01.2014 09:38 10,4 C 8,3 C 91 % 1006,0 hPa 0,0 l/m 0 min 0 min 0,0 UV-I 11 W/m 7,7 km/h (2 Bft)
09.01.2014 09:40 10,5 C 8,3 C 91 % 1006,0 hPa 0,0 l/m 0 min 0 min 0,0 UV-I 12 W/m 18,0 km/h (3 Bft)
09.01.2014 09:42 10,6 C 8,3 C 91 % 1005,9 hPa 0,0 l/m 0 min 0 min 0,0 UV-I 14 W/m 10,3 km/h (2 Bft)
09.01.2014 09:44 10,7 C 8,3 C 90 % 1005,8 hPa 0,0 l/m 0 min 0 min 0,0 UV-I 18 W/m 18,0 km/h (3 Bft)
09.01.2014 09:46 10,7 C 8,9 C 90 % 1005,8 hPa 0,0 l/m 0 min 0 min 0,0 UV-I 19 W/m 18,0 km/h (3 Bft)
09.01.2014 09:48 10,8 C 8,9 C 90 % 1005,9 hPa 0,0 l/m 0 min 0 min 0,0 UV-I 23 W/m 15,4 km/h (3 Bft)
09.01.2014 09:50 10,9 C 8,9 C 90 % 1005,7 hPa 0,0 l/m 0 min 0 min 0,0 UV-I 23 W/m 12,9 km/h (3 Bft)
09.01.2014 09:52 11,0 C 8,9 C 89 % 1005,8 hPa 0,0 l/m 0 min 0 min 0,0 UV-I 18 W/m 12,9 km/h (3 Bft)
09.01.2014 09:54 11,1 C 8,9 C 89 % 1005,8 hPa 0,0 l/m 0 min 0 min 0,0 UV-I 16 W/m 7,7 km/h (2 Bft)
09.01.2014 09:56 11,2 C 8,9 C 89 % 1005,8 hPa 0,0 l/m 0 min 0 min 0,0 UV-I 14 W/m 25,7 km/h (4 Bft)
09.01.2014 09:58 11,3 C 8,9 C 88 % 1005,7 hPa 0,0 l/m 0 min 0 min 0,0 UV-I 21 W/m 18,0 km/h (3 Bft)
09.01.2014 10:00 11,3 C 8,9 C 88 % 1005,7 hPa 0,0 l/m 0 min 0 min 0,0 UV-I 18 W/m 12,9 km/h (3 Bft)
09.01.2014 10:02 11,4 C 8,9 C 88 % 1005,7 hPa 0,0 l/m 0 min 0 min 0,0 UV-I 11 W/m 10,3 km/h (2 Bft)
09.01.2014 10:04 11,4 C 8,9 C 88 % 1005,7 hPa 0,0 l/m 0 min 0 min 0,0 UV-I 9 W/m 18,0 km/h (3 Bft)
09.01.2014 10:06 11,5 C 8,9 C 87 % 1005,7 hPa 0,0 l/m 0 min 0 min 0,0 UV-I 9 W/m 20,6 km/h (4 Bft)
09.01.2014 10:08 11,6 C 8,9 C 87 % 1005,8 hPa 0,0 l/m 0 min 0 min 0,0 UV-I 11 W/m 20,6 km/h (4 Bft)
09.01.2014 10:10 11,7 C 9,4 C 87 % 1005,9 hPa 0,0 l/m 0 min 0 min 0,0 UV-I 11 W/m 18,0 km/h (3 Bft)
09.01.2014 10:12 11,7 C 9,4 C 87 % 1005,9 hPa 0,0 l/m 0 min 0 min 0,0 UV-I 12 W/m 25,7 km/h (4 Bft)
09.01.2014 10:14 11,8 C 9,4 C 86 % 1005,8 hPa 0,0 l/m 0 min 0 min 0,0 UV-I 18 W/m 12,9 km/h (3 Bft)
09.01.2014 10:16 11,9 C 9,4 C 86 % 1005,8 hPa 0,0 l/m 0 min 0 min 0,0 UV-I 30 W/m 25,7 km/h (4 Bft)
09.01.2014 10:18 11,9 C 9,4 C 86 % 1005,7 hPa 0,0 l/m 0 min 0 min 0,0 UV-I 42 W/m 20,6 km/h (4 Bft)
09.01.2014 10:20 12,0 C 9,4 C 86 % 1005,7 hPa 0,0 l/m 0 min 0 min 0,0 UV-I 49 W/m 23,2 km/h (4 Bft)
09.01.2014 10:22 12,1 C 9,4 C 85 % 1005,6 hPa 0,0 l/m 0 min 0 min 0,0 UV-I 60 W/m 18,0 km/h (3 Bft)
09.01.2014 10:24 12,1 C 9,4 C 85 % 1005,7 hPa 0,0 l/m 0 min 0 min 0,0 UV-I 65 W/m 25,7 km/h (4 Bft)
09.01.2014 10:26 12,2 C 9,4 C 85 % 1005,7 hPa 0,0 l/m 0 min 0 min 0,0 UV-I 69 W/m 18,0 km/h (3 Bft)
09.01.2014 10:28 12,2 C 9,4 C 85 % 1005,7 hPa 0,0 l/m 0 min 0 min 0,0 UV-I 76 W/m 25,7 km/h (4 Bft)
09.01.2014 10:30 12,2 C 9,4 C 85 % 1005,6 hPa 0,0 l/m 0 min 0 min 0,0 UV-I 54 W/m 25,7 km/h (4 Bft)
09.01.2014 10:32 12,3 C 9,4 C 84 % 1005,6 hPa 0,0 l/m 0 min 0 min 0,0 UV-I 46 W/m 18,0 km/h (3 Bft)
09.01.2014 10:34 12,3 C 9,4 C 84 % 1005,5 hPa 0,0 l/m 0 min 0 min 0,0 UV-I 54 W/m 25,7 km/h (4 Bft)
09.01.2014 10:36 12,4 C 10,0 C 84 % 1005,5 hPa 0,0 l/m 0 min 0 min 0,0 UV-I 56 W/m 25,7 km/h (4 Bft)
09.01.2014 10:38 12,4 C 10,0 C 84 % 1005,4 hPa 0,0 l/m 0 min 0 min 0,0 UV-I 54 W/m 12,9 km/h (3 Bft)
09.01.2014 10:40 12,4 C 10,0 C 84 % 1005,7 hPa 0,0 l/m 0 min 0 min 0,0 UV-I 47 W/m 20,6 km/h (4 Bft)
09.01.2014 10:42 12,4 C 10,0 C 84 % 1005,5 hPa 0,0 l/m 0 min 0 min 0,0 UV-I 37 W/m 15,4 km/h (3 Bft)
09.01.2014 10:44 12,4 C 10,0 C 84 % 1005,4 hPa 0,0 l/m 0 min 0 min 0,0 UV-I 40 W/m 23,2 km/h (4 Bft)
09.01.2014 10:46 12,5 C 10,0 C 84 % 1005,4 hPa 0,0 l/m 0 min 0 min 0,0 UV-I 40 W/m 48,9 km/h (6 Bft)
09.01.2014 10:48 12,5 C 10,0 C 84 % 1005,4 hPa 0,0 l/m 0 min 0 min 0,0 UV-I 40 W/m 33,5 km/h (5 Bft)
09.01.2014 10:50 12,5 C 10,0 C 83 % 1005,2 hPa 0,0 l/m 0 min 0 min 0,0 UV-I 40 W/m 23,2 km/h (4 Bft)
09.01.2014 10:52 12,6 C 10,0 C 83 % 1005,4 hPa 0,0 l/m 0 min 0 min 0,0 UV-I 58 W/m 51,5 km/h (7 Bft)
09.01.2014 10:54 12,6 C 10,0 C 83 % 1005,2 hPa 0,0 l/m 0 min 0 min 0,0 UV-I 76 W/m 20,6 km/h (4 Bft)
09.01.2014 10:56 12,6 C 10,0 C 83 % 1005,3 hPa 0,0 l/m 0 min 0 min 0,0 UV-I 84 W/m 41,2 km/h (6 Bft)
09.01.2014 10:58 12,6 C 10,0 C 83 % 1005,4 hPa 0,0 l/m 0 min 0 min 0,0 UV-I 72 W/m 23,2 km/h (4 Bft)
09.01.2014 11:00 12,7 C 10,0 C 83 % 1005,4 hPa 0,0 l/m 0 min 0 min 0,0 UV-I 69 W/m 41,2 km/h (6 Bft)
09.01.2014 11:02 12,7 C 10,0 C 83 % 1005,2 hPa 0,0 l/m 0 min 0 min 0,0 UV-I 58 W/m 28,3 km/h (4 Bft)
09.01.2014 11:04 12,7 C 10,0 C 83 % 1005,2 hPa 0,0 l/m 0 min 2 min 0,0 UV-I 49 W/m 33,5 km/h (5 Bft)
09.01.2014 11:06 12,7 C 10,0 C 83 % 1005,2 hPa 0,0 l/m 0 min 2 min 0,0 UV-I 44 W/m 28,3 km/h (4 Bft)
09.01.2014 11:08 12,7 C 10,0 C 83 % 1005,4 hPa 0,0 l/m 0 min 2 min 0,0 UV-I 32 W/m 18,0 km/h (3 Bft)
09.01.2014 11:10 12,7 C 10,0 C 83 % 1005,1 hPa 0,0 l/m 0 min 2 min 0,0 UV-I 23 W/m 28,3 km/h (4 Bft)
09.01.2014 11:12 12,7 C 10,0 C 83 % 1005,4 hPa 0,0 l/m 0 min 2 min 0,0 UV-I 25 W/m 25,7 km/h (4 Bft)
09.01.2014 11:14 12,7 C 10,0 C 83 % 1005,4 hPa 0,0 l/m 0 min 2 min 0,0 UV-I 62 W/m 28,3 km/h (4 Bft)
09.01.2014 11:16 12,7 C 10,0 C 84 % 1005,4 hPa 0,0 l/m 0 min 2 min 0,0 UV-I 33 W/m 43,8 km/h (6 Bft)
09.01.2014 11:18 12,6 C 10,0 C 84 % 1005,4 hPa 0,0 l/m 0 min 2 min 0,0 UV-I 37 W/m 23,2 km/h (4 Bft)
09.01.2014 11:20 12,6 C 9,4 C 84 % 1005,3 hPa 0,0 l/m 0 min 2 min 0,0 UV-I 58 W/m 20,6 km/h (4 Bft)
09.01.2014 11:22 12,6 C 9,4 C 84 % 1005,1 hPa 0,0 l/m 0 min 2 min 0,0 UV-I 63 W/m 15,4 km/h (3 Bft)
09.01.2014 11:24 12,6 C 9,4 C 85 % 1005,2 hPa 0,0 l/m 0 min 2 min 0,0 UV-I 49 W/m 33,5 km/h (5 Bft)
09.01.2014 11:26 12,4 C 9,4 C 85 % 1005,0 hPa 0,0 l/m 0 min 2 min 0,0 UV-I 37 W/m 18,0 km/h (3 Bft)
09.01.2014 11:28 12,4 C 9,4 C 85 % 1005,0 hPa 0,0 l/m 0 min 2 min 0,0 UV-I 30 W/m 38,6 km/h (5 Bft)
09.01.2014 11:30 12,3 C 9,4 C 86 % 1005,0 hPa 0,0 l/m 0 min 2 min 0,0 UV-I 49 W/m 41,2 km/h (6 Bft)
09.01.2014 11:32 12,3 C 9,4 C 86 % 1005,1 hPa 0,0 l/m 0 min 2 min 0,0 UV-I 49 W/m 15,4 km/h (3 Bft)
09.01.2014 11:34 12,2 C 9,4 C 86 % 1005,2 hPa 0,0 l/m 0 min 2 min 0,0 UV-I 62 W/m 36,0 km/h (5 Bft)
09.01.2014 11:36 12,2 C 9,4 C 87 % 1004,9 hPa 0,0 l/m 0 min 2 min 0,0 UV-I 67 W/m 43,8 km/h (6 Bft)
09.01.2014 11:38 12,1 C 9,4 C 87 % 1004,8 hPa 0,0 l/m 0 min 2 min 0,0 UV-I 69 W/m 20,6 km/h (4 Bft)
09.01.2014 11:40 12,1 C 9,4 C 87 % 1004,9 hPa 0,0 l/m 0 min 2 min 0,0 UV-I 69 W/m 43,8 km/h (6 Bft)
09.01.2014 11:44 12,0 C 9,4 C 87 % 1004,8 hPa 0,0 l/m 0 min 2 min 0,0 UV-I 62 W/m 23,2 km/h (4 Bft)
09.01.2014 11:46 12,0 C 9,4 C 87 % 1005,0 hPa 0,0 l/m 0 min 2 min 0,0 UV-I 56 W/m 20,6 km/h (4 Bft)
09.01.2014 11:48 12,0 C 9,4 C 87 % 1004,9 hPa 0,0 l/m 0 min 2 min 0,0 UV-I 53 W/m 28,3 km/h (4 Bft)
09.01.2014 11:50 12,0 C 9,4 C 87 % 1004,6 hPa 0,0 l/m 0 min 0 min 0,0 UV-I 56 W/m 18,0 km/h (3 Bft)
09.01.2014 11:52 12,0 C 9,4 C 87 % 1005,2 hPa 0,0 l/m 0 min 2 min 0,0 UV-I 56 W/m 33,5 km/h (5 Bft)
09.01.2014 11:54 12,0 C 9,4 C 87 % 1004,7 hPa 0,0 l/m 0 min 2 min 0,0 UV-I 42 W/m 36,0 km/h (5 Bft)
09.01.2014 11:56 12,0 C 9,4 C 87 % 1004,7 hPa 0,0 l/m 0 min 2 min 0,0 UV-I 28 W/m 28,3 km/h (4 Bft)
09.01.2014 11:58 12,0 C 9,4 C 87 % 1004,7 hPa 0,0 l/m 0 min 0 min 0,0 UV-I 44 W/m 23,2 km/h (4 Bft)
09.01.2014 12:00 11,9 C 10,0 C 87 % 1004,6 hPa 0,0 l/m 0 min 0 min 0,0 UV-I 67 W/m 23,2 km/h (4 Bft)
09.01.2014 12:02 12,0 C 10,0 C 87 % 1004,7 hPa 0,0 l/m 0 min 0 min 0,0 UV-I 79 W/m 25,7 km/h (4 Bft)
09.01.2014 12:04 12,0 C 10,0 C 87 % 1004,5 hPa 0,0 l/m 0 min 2 min 0,0 UV-I 79 W/m 36,0 km/h (5 Bft)
09.01.2014 12:06 12,0 C 10,0 C 87 % 1004,4 hPa 0,0 l/m 0 min 0 min 0,0 UV-I 77 W/m 30,9 km/h (5 Bft)
09.01.2014 12:08 12,1 C 10,0 C 86 % 1004,4 hPa 0,0 l/m 0 min 2 min 0,0 UV-I 67 W/m 30,9 km/h (5 Bft)
09.01.2014 12:10 12,1 C 10,0 C 87 % 1004,4 hPa 0,0 l/m 0 min 2 min 0,0 UV-I 65 W/m 23,2 km/h (4 Bft)
09.01.2014 12:12 12,1 C 10,0 C 87 % 1004,8 hPa 0,0 l/m 0 min 0 min 0,0 UV-I 62 W/m 41,2 km/h (6 Bft)
09.01.2014 12:14 12,1 C 10,0 C 86 % 1004,4 hPa 0,0 l/m 0 min 2 min 0,0 UV-I 63 W/m 23,2 km/h (4 Bft)
09.01.2014 12:16 12,2 C 10,6 C 86 % 1004,3 hPa 0,0 l/m 0 min 0 min 0,0 UV-I 65 W/m 28,3 km/h (4 Bft)
09.01.2014 12:18 12,2 C 10,6 C 86 % 1004,4 hPa 0,0 l/m 0 min 2 min 0,0 UV-I 62 W/m 36,0 km/h (5 Bft)
09.01.2014 12:20 12,2 C 10,6 C 86 % 1004,4 hPa 0,0 l/m 0 min 0 min 0,0 UV-I 70 W/m 18,0 km/h (3 Bft)
09.01.2014 12:22 12,2 C 10,6 C 86 % 1004,6 hPa 0,0 l/m 0 min 0 min 0,0 UV-I 74 W/m 25,7 km/h (4 Bft)
09.01.2014 12:24 12,2 C 10,6 C 86 % 1004,3 hPa 0,0 l/m 0 min 0 min 0,0 UV-I 79 W/m 18,0 km/h (3 Bft)
09.01.2014 12:26 12,2 C 10,6 C 86 % 1004,2 hPa 0,0 l/m 0 min 0 min 0,0 UV-I 74 W/m 10,3 km/h (2 Bft)
09.01.2014 12:28 12,2 C 10,6 C 86 % 1004,3 hPa 0,0 l/m 0 min 2 min 0,0 UV-I 69 W/m 43,8 km/h (6 Bft)
09.01.2014 12:33 12,2 C 10,6 C 86 % 1004,4 hPa 0,0 l/m 0 min 2 min 0,0 UV-I 46 W/m 25,7 km/h (4 Bft)
09.01.2014 12:34 12,2 C 10,6 C 86 % 1004,4 hPa 0,0 l/m 0 min 0 min 0,0 UV-I 49 W/m 12,9 km/h (3 Bft)
09.01.2014 12:36 12,2 C 10,6 C 85 % 1004,3 hPa 0,0 l/m 0 min 0 min 0,0 UV-I 53 W/m 25,7 km/h (4 Bft)
09.01.2014 12:38 12,2 C 10,6 C 85 % 1004,2 hPa 0,0 l/m 0 min 0 min 0,0 UV-I 44 W/m 25,7 km/h (4 Bft)
09.01.2014 12:40 12,2 C 10,6 C 85 % 1004,1 hPa 0,0 l/m 0 min 0 min 0,0 UV-I 58 W/m 30,9 km/h (5 Bft)
09.01.2014 12:42 12,2 C 10,6 C 85 % 1004,1 hPa 0,0 l/m 0 min 0 min 0,0 UV-I 42 W/m 33,5 km/h (5 Bft)
09.01.2014 12:44 12,2 C 10,6 C 85 % 1004,5 hPa 0,0 l/m 0 min 0 min 0,0 UV-I 53 W/m 36,0 km/h (5 Bft)
09.01.2014 12:46 12,2 C 10,6 C 85 % 1004,1 hPa 0,0 l/m 0 min 0 min 0,0 UV-I 51 W/m 23,2 km/h (4 Bft)
09.01.2014 12:48 12,2 C 10,6 C 84 % 1004,2 hPa 0,0 l/m 0 min 0 min 0,0 UV-I 54 W/m 33,5 km/h (5 Bft)
09.01.2014 12:50 12,2 C 10,6 C 84 % 1004,0 hPa 0,0 l/m 0 min 0 min 0,0 UV-I 62 W/m 25,7 km/h (4 Bft)
09.01.2014 12:52 12,2 C 10,6 C 84 % 1004,2 hPa 0,0 l/m 0 min 0 min 0,0 UV-I 62 W/m 25,7 km/h (4 Bft)
09.01.2014 12:54 12,2 C 10,6 C 84 % 1004,2 hPa 0,0 l/m 0 min 0 min 0,0 UV-I 54 W/m 25,7 km/h (4 Bft)
09.01.2014 12:56 12,2 C 10,6 C 84 % 1004,2 hPa 0,0 l/m 0 min 0 min 0,0 UV-I 51 W/m 30,9 km/h (5 Bft)
09.01.2014 12:58 12,2 C 10,6 C 83 % 1004,1 hPa 0,0 l/m 0 min 0 min 0,0 UV-I 51 W/m 36,0 km/h (5 Bft)
09.01.2014 13:00 12,2 C 10,6 C 83 % 1004,1 hPa 0,0 l/m 0 min 0 min 0,0 UV-I 56 W/m 30,9 km/h (5 Bft)
09.01.2014 13:02 12,3 C 10,6 C 83 % 1004,1 hPa 0,0 l/m 0 min 2 min 0,0 UV-I 63 W/m 30,9 km/h (5 Bft)
09.01.2014 13:04 12,2 C 10,6 C 82 % 1003,9 hPa 0,0 l/m 0 min 2 min 0,0 UV-I 77 W/m 28,3 km/h (4 Bft)
09.01.2014 13:06 12,3 C 10,6 C 82 % 1004,0 hPa 0,0 l/m 0 min 2 min 0,0 UV-I 91 W/m 30,9 km/h (5 Bft)
09.01.2014 13:08 12,3 C 10,6 C 82 % 1003,9 hPa 0,0 l/m 0 min 2 min 0,0 UV-I 70 W/m 20,6 km/h (4 Bft)
09.01.2014 13:10 12,3 C 10,6 C 82 % 1004,0 hPa 0,0 l/m 0 min 0 min 0,0 UV-I 60 W/m 30,9 km/h (5 Bft)
09.01.2014 13:12 12,3 C 10,6 C 82 % 1004,0 hPa 0,0 l/m 0 min 0 min 0,0 UV-I 54 W/m 23,2 km/h (4 Bft)
09.01.2014 13:14 12,3 C 10,6 C 82 % 1003,9 hPa 0,0 l/m 0 min 0 min 0,0 UV-I 60 W/m 30,9 km/h (5 Bft)
09.01.2014 13:16 12,3 C 10,6 C 82 % 1003,8 hPa 0,0 l/m 0 min 0 min 0,0 UV-I 63 W/m 18,0 km/h (3 Bft)
09.01.2014 13:18 12,2 C 10,6 C 82 % 1003,9 hPa 0,0 l/m 0 min 0 min 0,0 UV-I 72 W/m 25,7 km/h (4 Bft)
09.01.2014 13:20 12,2 C 10,6 C 82 % 1003,6 hPa 0,0 l/m 0 min 0 min 0,0 UV-I 74 W/m 20,6 km/h (4 Bft)
09.01.2014 13:22 12,2 C 10,6 C 82 % 1003,6 hPa 0,0 l/m 0 min 0 min 0,0 UV-I 65 W/m 41,2 km/h (6 Bft)
09.01.2014 13:24 12,2 C 10,6 C 82 % 1003,8 hPa 0,0 l/m 0 min 0 min 0,0 UV-I 67 W/m 33,5 km/h (5 Bft)
09.01.2014 13:26 12,2 C 10,6 C 82 % 1003,6 hPa 0,0 l/m 0 min 0 min 0,0 UV-I 63 W/m 38,6 km/h (5 Bft)
09.01.2014 13:28 12,2 C 10,6 C 82 % 1003,5 hPa 0,0 l/m 0 min 0 min 0,0 UV-I 65 W/m 25,7 km/h (4 Bft)
09.01.2014 13:30 12,2 C 10,6 C 82 % 1003,6 hPa 0,0 l/m 0 min 0 min 0,0 UV-I 76 W/m 46,3 km/h (6 Bft)
09.01.2014 13:32 12,2 C 10,6 C 82 % 1003,6 hPa 0,0 l/m 0 min 0 min 0,0 UV-I 76 W/m 25,7 km/h (4 Bft)
09.01.2014 13:34 12,2 C 10,6 C 82 % 1003,5 hPa 0,0 l/m 0 min 0 min 0,0 UV-I 65 W/m 38,6 km/h (5 Bft)
09.01.2014 13:36 12,2 C 10,6 C 82 % 1003,7 hPa 0,0 l/m 0 min 0 min 0,0 UV-I 60 W/m 33,5 km/h (5 Bft)
09.01.2014 13:38 12,2 C 10,6 C 82 % 1003,6 hPa 0,0 l/m 0 min 0 min 0,0 UV-I 72 W/m 30,9 km/h (5 Bft)
09.01.2014 13:40 12,2 C 10,6 C 82 % 1003,7 hPa 0,0 l/m 0 min 0 min 0,0 UV-I 70 W/m 23,2 km/h (4 Bft)
09.01.2014 13:42 12,2 C 10,6 C 82 % 1003,7 hPa 0,0 l/m 0 min 0 min 0,0 UV-I 79 W/m 23,2 km/h (4 Bft)
09.01.2014 13:44 12,2 C 10,6 C 82 % 1003,6 hPa 0,0 l/m 0 min 0 min 0,0 UV-I 81 W/m 23,2 km/h (4 Bft)
09.01.2014 13:46 12,2 C 10,6 C 82 % 1003,4 hPa 0,0 l/m 0 min 0 min 0,0 UV-I 79 W/m 33,5 km/h (5 Bft)
09.01.2014 13:48 12,2 C 10,6 C 81 % 1003,4 hPa 0,0 l/m 0 min 0 min 0,0 UV-I 72 W/m 30,9 km/h (5 Bft)
09.01.2014 13:50 12,2 C 10,6 C 82 % 1003,4 hPa 0,0 l/m 0 min 0 min 0,0 UV-I 67 W/m 36,0 km/h (5 Bft)
09.01.2014 13:52 12,2 C 10,6 C 82 % 1003,4 hPa 0,0 l/m 0 min 0 min 0,0 UV-I 74 W/m 33,5 km/h (5 Bft)
09.01.2014 13:54 12,1 C 10,6 C 82 % 1003,4 hPa 0,0 l/m 0 min 0 min 0,0 UV-I 81 W/m 38,6 km/h (5 Bft)
09.01.2014 13:56 12,1 C 10,6 C 81 % 1003,3 hPa 0,0 l/m 0 min 0 min 0,0 UV-I 84 W/m 33,5 km/h (5 Bft)
09.01.2014 13:58 12,1 C 10,6 C 81 % 1003,2 hPa 0,0 l/m 0 min 0 min 0,0 UV-I 84 W/m 25,7 km/h (4 Bft)
09.01.2014 14:00 12,1 C 10,6 C 81 % 1003,2 hPa 0,0 l/m 0 min 0 min 0,0 UV-I 83 W/m 18,0 km/h (3 Bft)
09.01.2014 14:02 12,1 C 10,6 C 81 % 1003,4 hPa 0,0 l/m 0 min 0 min 0,0 UV-I 90 W/m 23,2 km/h (4 Bft)
09.01.2014 14:04 12,1 C 10,6 C 82 % 1003,4 hPa 0,0 l/m 0 min 0 min 0,0 UV-I 88 W/m 25,7 km/h (4 Bft)
09.01.2014 14:06 12,1 C 10,6 C 82 % 1003,2 hPa 0,0 l/m 0 min 0 min 0,0 UV-I 72 W/m 28,3 km/h (4 Bft)
09.01.2014 14:08 12,1 C 10,6 C 81 % 1003,3 hPa 0,0 l/m 0 min 0 min 0,0 UV-I 63 W/m 28,3 km/h (4 Bft)
09.01.2014 14:10 12,1 C 10,6 C 81 % 1003,3 hPa 0,0 l/m 0 min 0 min 0,0 UV-I 53 W/m 28,3 km/h (4 Bft)
09.01.2014 14:12 12,1 C 10,6 C 82 % 1003,2 hPa 0,0 l/m 0 min 0 min 0,0 UV-I 62 W/m 18,0 km/h (3 Bft)
09.01.2014 14:14 12,0 C 10,6 C 82 % 1003,5 hPa 0,0 l/m 0 min 0 min 0,0 UV-I 62 W/m 18,0 km/h (3 Bft)
09.01.2014 14:16 12,0 C 10,6 C 82 % 1003,3 hPa 0,0 l/m 0 min 0 min 0,0 UV-I 58 W/m 15,4 km/h (3 Bft)
09.01.2014 14:18 12,0 C 10,6 C 81 % 1003,4 hPa 0,0 l/m 0 min 0 min 0,0 UV-I 33 W/m 41,2 km/h (6 Bft)
09.01.2014 14:20 12,0 C 10,6 C 81 % 1003,4 hPa 0,0 l/m 0 min 0 min 0,0 UV-I 30 W/m 36,0 km/h (5 Bft)
09.01.2014 14:22 12,0 C 10,6 C 81 % 1003,6 hPa 0,0 l/m 0 min 0 min 0,0 UV-I 37 W/m 30,9 km/h (5 Bft)
09.01.2014 14:24 12,0 C 10,6 C 81 % 1003,4 hPa 0,0 l/m 0 min 0 min 0,0 UV-I 21 W/m 25,7 km/h (4 Bft)
09.01.2014 14:26 11,9 C 10,6 C 81 % 1003,3 hPa 0,0 l/m 0 min 0 min 0,0 UV-I 26 W/m 33,5 km/h (5 Bft)
09.01.2014 14:28 11,9 C 10,6 C 80 % 1003,3 hPa 0,0 l/m 0 min 0 min 0,0 UV-I 28 W/m 43,8 km/h (6 Bft)
09.01.2014 14:30 11,9 C 10,6 C 80 % 1003,4 hPa 0,0 l/m 0 min 0 min 0,0 UV-I 26 W/m 25,7 km/h (4 Bft)
09.01.2014 14:32 11,9 C 10,0 C 80 % 1003,5 hPa 0,0 l/m 0 min 0 min 0,0 UV-I 30 W/m 28,3 km/h (4 Bft)
09.01.2014 14:34 11,9 C 10,0 C 81 % 1003,3 hPa 0,0 l/m 0 min 0 min 0,0 UV-I 37 W/m 18,0 km/h (3 Bft)
09.01.2014 14:36 11,9 C 10,0 C 80 % 1003,4 hPa 0,0 l/m 0 min 0 min 0,0 UV-I 44 W/m 15,4 km/h (3 Bft)
09.01.2014 14:38 11,9 C 10,0 C 80 % 1003,2 hPa 0,0 l/m 0 min 0 min 0,0 UV-I 69 W/m 30,9 km/h (5 Bft)
09.01.2014 14:40 11,9 C 10,6 C 80 % 1003,3 hPa 0,0 l/m 0 min 0 min 0,0 UV-I 90 W/m 25,7 km/h (4 Bft)
09.01.2014 14:42 11,9 C 10,6 C 80 % 1003,0 hPa 0,0 l/m 0 min 0 min 0,0 UV-I 98 W/m 15,4 km/h (3 Bft)
09.01.2014 14:44 11,9 C 10,6 C 80 % 1003,1 hPa 0,0 l/m 0 min 0 min 0,0 UV-I 100 W/m 23,2 km/h (4 Bft)
09.01.2014 14:46 11,9 C 10,6 C 80 % 1003,0 hPa 0,0 l/m 0 min 0 min 0,0 UV-I 90 W/m 20,6 km/h (4 Bft)
09.01.2014 14:48 11,9 C 10,6 C 80 % 1003,3 hPa 0,0 l/m 0 min 0 min 0,0 UV-I 91 W/m 28,3 km/h (4 Bft)
09.01.2014 14:50 11,9 C 10,6 C 79 % 1003,3 hPa 0,0 l/m 0 min 0 min 0,0 UV-I 91 W/m 20,6 km/h (4 Bft)
09.01.2014 14:52 11,9 C 10,6 C 79 % 1003,3 hPa 0,0 l/m 0 min 0 min 0,0 UV-I 98 W/m 23,2 km/h (4 Bft)
09.01.2014 14:54 12,0 C 10,6 C 79 % 1003,3 hPa 0,0 l/m 0 min 0 min 0,0 UV-I 88 W/m 33,5 km/h (5 Bft)
09.01.2014 14:56 12,0 C 10,6 C 79 % 1003,5 hPa 0,0 l/m 0 min 0 min 0,0 UV-I 91 W/m 41,2 km/h (6 Bft)
09.01.2014 14:58 12,0 C 10,6 C 79 % 1003,4 hPa 0,0 l/m 0 min 0 min 0,0 UV-I 72 W/m 20,6 km/h (4 Bft)
09.01.2014 15:00 12,0 C 10,6 C 79 % 1003,5 hPa 0,0 l/m 0 min 0 min 0,0 UV-I 53 W/m 33,5 km/h (5 Bft)
09.01.2014 15:02 11,9 C 10,6 C 78 % 1003,9 hPa 0,0 l/m 0 min 0 min 0,0 UV-I 54 W/m 30,9 km/h (5 Bft)
09.01.2014 15:04 11,9 C 10,6 C 78 % 1003,6 hPa 0,0 l/m 0 min 0 min 0,0 UV-I 49 W/m 15,4 km/h (3 Bft)
09.01.2014 15:06 11,9 C 10,6 C 78 % 1004,0 hPa 0,0 l/m 0 min 0 min 0,0 UV-I 40 W/m 36,0 km/h (5 Bft)
09.01.2014 15:08 11,9 C 10,6 C 78 % 1003,5 hPa 0,0 l/m 0 min 0 min 0,0 UV-I 42 W/m 28,3 km/h (4 Bft)
09.01.2014 15:10 11,9 C 10,6 C 78 % 1003,5 hPa 0,0 l/m 0 min 0 min 0,0 UV-I 37 W/m 33,5 km/h (5 Bft)
09.01.2014 15:12 11,9 C 10,0 C 78 % 1003,5 hPa 0,0 l/m 0 min 0 min 0,0 UV-I 32 W/m 23,2 km/h (4 Bft)
09.01.2014 15:14 11,9 C 10,0 C 78 % 1003,7 hPa 0,0 l/m 0 min 0 min 0,0 UV-I 39 W/m 33,5 km/h (5 Bft)
09.01.2014 15:16 11,9 C 10,0 C 78 % 1003,3 hPa 0,0 l/m 0 min 0 min 0,0 UV-I 47 W/m 30,9 km/h (5 Bft)
09.01.2014 15:18 11,9 C 10,0 C 77 % 1003,2 hPa 0,0 l/m 0 min 0 min 0,0 UV-I 46 W/m 30,9 km/h (5 Bft)
09.01.2014 15:20 11,9 C 10,0 C 78 % 1003,3 hPa 0,0 l/m 0 min 0 min 0,0 UV-I 44 W/m 20,6 km/h (4 Bft)
09.01.2014 15:22 11,9 C 10,0 C 78 % 1003,2 hPa 0,0 l/m 0 min 0 min 0,0 UV-I 39 W/m 20,6 km/h (4 Bft)
09.01.2014 15:24 11,8 C 10,0 C 78 % 1003,4 hPa 0,0 l/m 0 min 0 min 0,0 UV-I 33 W/m 25,7 km/h (4 Bft)
09.01.2014 15:26 11,8 C 10,0 C 78 % 1003,4 hPa 0,0 l/m 0 min 0 min 0,0 UV-I 28 W/m 28,3 km/h (4 Bft)
09.01.2014 15:28 11,8 C 10,0 C 77 % 1003,2 hPa 0,0 l/m 0 min 0 min 0,0 UV-I 26 W/m 12,9 km/h (3 Bft)
09.01.2014 15:30 11,8 C 10,0 C 77 % 1003,3 hPa 0,0 l/m 0 min 0 min 0,0 UV-I 26 W/m 20,6 km/h (4 Bft)
09.01.2014 15:32 11,8 C 10,0 C 78 % 1003,4 hPa 0,0 l/m 0 min 0 min 0,0 UV-I 23 W/m 23,2 km/h (4 Bft)
09.01.2014 15:34 11,8 C 10,0 C 77 % 1003,1 hPa 0,0 l/m 0 min 0 min 0,0 UV-I 19 W/m 28,3 km/h (4 Bft)
09.01.2014 15:36 11,8 C 10,0 C 77 % 1003,3 hPa 0,0 l/m 0 min 0 min 0,0 UV-I 18 W/m 23,2 km/h (4 Bft)
09.01.2014 15:38 11,7 C 10,0 C 78 % 1003,2 hPa 0,0 l/m 0 min 0 min 0,0 UV-I 16 W/m 23,2 km/h (4 Bft)
09.01.2014 15:40 11,7 C 10,0 C 77 % 1003,2 hPa 0,0 l/m 0 min 0 min 0,0 UV-I 18 W/m 20,6 km/h (4 Bft)
09.01.2014 15:42 11,7 C 10,0 C 77 % 1003,1 hPa 0,0 l/m 0 min 0 min 0,0 UV-I 18 W/m 46,3 km/h (6 Bft)
09.01.2014 15:44 11,7 C 10,0 C 77 % 1003,1 hPa 0,0 l/m 0 min 0 min 0,0 UV-I 18 W/m 28,3 km/h (4 Bft)
09.01.2014 15:46 11,7 C 10,0 C 77 % 1003,3 hPa 0,0 l/m 0 min 0 min 0,0 UV-I 19 W/m 25,7 km/h (4 Bft)
09.01.2014 15:48 11,7 C 10,0 C 77 % 1003,4 hPa 0,0 l/m 0 min 0 min 0,0 UV-I 18 W/m 33,5 km/h (5 Bft)
09.01.2014 15:50 11,7 C 10,0 C 77 % 1003,3 hPa 0,0 l/m 0 min 0 min 0,0 UV-I 16 W/m 36,0 km/h (5 Bft)
09.01.2014 15:52 11,7 C 10,0 C 77 % 1003,4 hPa 0,0 l/m 0 min 0 min 0,0 UV-I 16 W/m 38,6 km/h (5 Bft)
09.01.2014 15:54 11,6 C 10,0 C 76 % 1003,9 hPa 0,0 l/m 0 min 0 min 0,0 UV-I 14 W/m 48,9 km/h (6 Bft)
09.01.2014 15:56 11,6 C 10,0 C 76 % 1003,5 hPa 0,0 l/m 0 min 0 min 0,0 UV-I 14 W/m 23,2 km/h (4 Bft)
09.01.2014 15:58 11,6 C 10,0 C 76 % 1003,5 hPa 0,0 l/m 0 min 0 min 0,0 UV-I 14 W/m 18,0 km/h (3 Bft)
09.01.2014 16:00 11,6 C 10,0 C 76 % 1003,4 hPa 0,0 l/m 0 min 0 min 0,0 UV-I 16 W/m 28,3 km/h (4 Bft)
09.01.2014 16:02 11,6 C 10,0 C 76 % 1003,6 hPa 0,0 l/m 0 min 0 min 0,0 UV-I 18 W/m 38,6 km/h (5 Bft)
09.01.2014 16:04 11,6 C 10,0 C 76 % 1003,6 hPa 0,0 l/m 0 min 0 min 0,0 UV-I 16 W/m 18,0 km/h (3 Bft)
09.01.2014 16:06 11,6 C 10,0 C 76 % 1003,6 hPa 0,0 l/m 0 min 0 min 0,0 UV-I 12 W/m 25,7 km/h (4 Bft)
09.01.2014 16:08 11,6 C 10,0 C 76 % 1003,9 hPa 0,0 l/m 0 min 0 min 0,0 UV-I 9 W/m 28,3 km/h (4 Bft)
09.01.2014 16:10 11,5 C 10,0 C 76 % 1003,7 hPa 0,0 l/m 0 min 2 min 0,0 UV-I 11 W/m 25,7 km/h (4 Bft)
09.01.2014 16:12 11,5 C 10,0 C 76 % 1003,7 hPa 0,0 l/m 0 min 2 min 0,0 UV-I 12 W/m 28,3 km/h (4 Bft)
09.01.2014 16:14 11,5 C 10,0 C 76 % 1003,6 hPa 0,0 l/m 0 min 2 min 0,0 UV-I 12 W/m 20,6 km/h (4 Bft)
09.01.2014 16:16 11,5 C 9,4 C 76 % 1003,7 hPa 0,0 l/m 0 min 2 min 0,0 UV-I 9 W/m 23,2 km/h (4 Bft)
09.01.2014 16:18 11,5 C 9,4 C 76 % 1003,7 hPa 0,0 l/m 0 min 2 min 0,0 UV-I 7 W/m 25,7 km/h (4 Bft)
09.01.2014 16:20 11,4 C 9,4 C 76 % 1003,8 hPa 0,0 l/m 0 min 2 min 0,0 UV-I 5 W/m 28,3 km/h (4 Bft)
09.01.2014 16:22 11,4 C 9,4 C 77 % 1003,7 hPa 0,0 l/m 0 min 2 min 0,0 UV-I 5 W/m 12,9 km/h (3 Bft)
09.01.2014 16:24 11,3 C 9,4 C 77 % 1003,8 hPa 0,0 l/m 0 min 2 min 0,0 UV-I 0 W/m 23,2 km/h (4 Bft)
09.01.2014 16:26 11,3 C 9,4 C 77 % 1003,8 hPa 0,0 l/m 0 min 2 min 0,0 UV-I 0 W/m 18,0 km/h (3 Bft)
09.01.2014 16:28 11,3 C 9,4 C 77 % 1003,8 hPa 0,0 l/m 0 min 2 min 0,0 UV-I 0 W/m 23,2 km/h (4 Bft)
09.01.2014 16:30 11,2 C 9,4 C 77 % 1003,7 hPa 0,0 l/m 0 min 2 min 0,0 UV-I 0 W/m 36,0 km/h (5 Bft)
09.01.2014 16:32 11,2 C 8,9 C 77 % 1003,8 hPa 0,0 l/m 0 min 2 min 0,0 UV-I 0 W/m 25,7 km/h (4 Bft)
09.01.2014 16:34 11,2 C 8,3 C 78 % 1003,8 hPa 0,0 l/m 0 min 2 min 0,0 UV-I 5 W/m 18,0 km/h (3 Bft)
09.01.2014 16:36 11,1 C 7,8 C 79 % 1003,9 hPa 0,2 l/m 0 min 2 min 0,0 UV-I 0 W/m 25,7 km/h (4 Bft)
09.01.2014 16:38 11,0 C 7,8 C 80 % 1004,0 hPa 0,0 l/m 0 min 2 min 0,0 UV-I 0 W/m 25,7 km/h (4 Bft)
09.01.2014 16:40 10,9 C 7,8 C 80 % 1004,1 hPa 0,0 l/m 0 min 2 min 0,0 UV-I 0 W/m 25,7 km/h (4 Bft)
09.01.2014 16:42 10,8 C 7,8 C 81 % 1004,2 hPa 0,0 l/m 0 min 2 min 0,0 UV-I 0 W/m 25,7 km/h (4 Bft)
09.01.2014 16:44 10,7 C 7,8 C 82 % 1004,1 hPa 0,0 l/m 0 min 2 min 0,0 UV-I 0 W/m 23,2 km/h (4 Bft)
09.01.2014 16:46 10,6 C 7,2 C 82 % 1004,1 hPa 0,0 l/m 0 min 2 min 0,0 UV-I 0 W/m 18,0 km/h (3 Bft)
09.01.2014 16:48 10,5 C 7,2 C 83 % 1004,1 hPa 0,0 l/m 0 min 2 min 0,0 UV-I 0 W/m 20,6 km/h (4 Bft)
09.01.2014 16:50 10,4 C 7,2 C 83 % 1004,1 hPa 0,0 l/m 0 min 2 min 0,0 UV-I 0 W/m 18,0 km/h (3 Bft)
09.01.2014 16:52 10,3 C 7,8 C 83 % 1004,2 hPa 0,0 l/m 0 min 2 min 0,0 UV-I 0 W/m 20,6 km/h (4 Bft)
09.01.2014 16:54 10,2 C 7,2 C 84 % 1004,2 hPa 0,0 l/m 0 min 2 min 0,0 UV-I 0 W/m 23,2 km/h (4 Bft)
09.01.2014 16:56 10,2 C 7,2 C 83 % 1004,5 hPa 0,0 l/m 0 min 2 min 0,0 UV-I 0 W/m 46,3 km/h (6 Bft)
09.01.2014 16:58 10,1 C 7,8 C 83 % 1004,4 hPa 0,0 l/m 0 min 2 min 0,0 UV-I 0 W/m 43,8 km/h (6 Bft)
09.01.2014 17:00 10,1 C 7,8 C 83 % 1004,3 hPa 0,0 l/m 0 min 0 min 0,0 UV-I 0 W/m 18,0 km/h (3 Bft)
09.01.2014 17:02 10,1 C 7,8 C 83 % 1004,5 hPa 0,0 l/m 0 min 0 min 0,0 UV-I 0 W/m 30,9 km/h (5 Bft)
09.01.2014 17:04 10,1 C 7,8 C 83 % 1004,3 hPa 0,0 l/m 0 min 0 min 0,0 UV-I 0 W/m 23,2 km/h (4 Bft)
09.01.2014 17:06 10,0 C 7,8 C 83 % 1004,3 hPa 0,0 l/m 0 min 0 min 0,0 UV-I 0 W/m 23,2 km/h (4 Bft)
09.01.2014 17:08 10,0 C 7,8 C 83 % 1004,3 hPa 0,0 l/m 0 min 0 min 0,0 UV-I 0 W/m 25,7 km/h (4 Bft)
09.01.2014 17:10 10,0 C 8,3 C 83 % 1004,4 hPa 0,0 l/m 0 min 2 min 0,0 UV-I 0 W/m 33,5 km/h (5 Bft)
09.01.2014 17:12 10,0 C 8,3 C 83 % 1004,5 hPa 0,0 l/m 0 min 0 min 0,0 UV-I 0 W/m 28,3 km/h (4 Bft)
09.01.2014 17:14 10,0 C 8,3 C 83 % 1004,5 hPa 0,0 l/m 0 min 0 min 0,0 UV-I 0 W/m 20,6 km/h (4 Bft)
09.01.2014 17:16 9,9 C 8,3 C 83 % 1004,5 hPa 0,0 l/m 0 min 0 min 0,0 UV-I 0 W/m 23,2 km/h (4 Bft)
09.01.2014 17:18 9,9 C 8,3 C 84 % 1004,4 hPa 0,0 l/m 0 min 0 min 0,0 UV-I 0 W/m 20,6 km/h (4 Bft)
09.01.2014 17:20 9,9 C 8,3 C 84 % 1004,5 hPa 0,0 l/m 0 min 0 min 0,0 UV-I 0 W/m 12,9 km/h (3 Bft)
09.01.2014 17:22 9,9 C 8,3 C 84 % 1004,5 hPa 0,0 l/m 0 min 2 min 0,0 UV-I 0 W/m 15,4 km/h (3 Bft)
09.01.2014 17:24 9,9 C 8,3 C 84 % 1004,5 hPa 0,0 l/m 0 min 0 min 0,0 UV-I 0 W/m 20,6 km/h (4 Bft)
09.01.2014 17:26 10,0 C 8,3 C 84 % 1004,5 hPa 0,0 l/m 0 min 2 min 0,0 UV-I 0 W/m 28,3 km/h (4 Bft)
09.01.2014 17:28 10,0 C 8,3 C 84 % 1004,7 hPa 0,0 l/m 0 min 2 min 0,0 UV-I 0 W/m 28,3 km/h (4 Bft)
09.01.2014 17:30 10,0 C 7,8 C 85 % 1004,8 hPa 0,0 l/m 0 min 2 min 0,0 UV-I 0 W/m 23,2 km/h (4 Bft)
09.01.2014 17:32 10,0 C 7,2 C 85 % 1004,8 hPa 0,2 l/m 0 min 2 min 0,0 UV-I 0 W/m 23,2 km/h (4 Bft)
09.01.2014 17:34 9,9 C 7,2 C 86 % 1004,9 hPa 0,2 l/m 0 min 2 min 0,0 UV-I 0 W/m 15,4 km/h (3 Bft)
09.01.2014 17:36 9,9 C 7,2 C 87 % 1005,2 hPa 0,2 l/m 0 min 2 min 0,0 UV-I 0 W/m 25,7 km/h (4 Bft)
09.01.2014 17:38 9,7 C 7,2 C 87 % 1005,1 hPa 0,4 l/m 0 min 2 min 0,0 UV-I 0 W/m 41,2 km/h (6 Bft)
09.01.2014 17:40 9,6 C 6,7 C 87 % 1005,1 hPa 0,0 l/m 0 min 2 min 0,0 UV-I 0 W/m 23,2 km/h (4 Bft)
09.01.2014 17:42 9,4 C 6,7 C 88 % 1005,0 hPa 0,2 l/m 0 min 2 min 0,0 UV-I 0 W/m 25,7 km/h (4 Bft)
09.01.2014 17:44 9,3 C 6,7 C 88 % 1005,1 hPa 0,0 l/m 0 min 2 min 0,0 UV-I 0 W/m 28,3 km/h (4 Bft)
09.01.2014 17:46 9,2 C 6,7 C 88 % 1005,1 hPa 0,2 l/m 0 min 2 min 0,0 UV-I 0 W/m 15,4 km/h (3 Bft)
09.01.2014 17:48 9,1 C 6,7 C 89 % 1005,1 hPa 0,0 l/m 0 min 2 min 0,0 UV-I 0 W/m 20,6 km/h (4 Bft)
09.01.2014 17:50 8,9 C 6,7 C 89 % 1005,1 hPa 0,0 l/m 0 min 2 min 0,0 UV-I 0 W/m 15,4 km/h (3 Bft)
09.01.2014 17:52 8,8 C 6,7 C 89 % 1005,2 hPa 0,0 l/m 0 min 2 min 0,0 UV-I 0 W/m 36,0 km/h (5 Bft)
09.01.2014 17:54 8,8 C 6,7 C 89 % 1005,2 hPa 0,0 l/m 0 min 2 min 0,0 UV-I 0 W/m 18,0 km/h (3 Bft)
09.01.2014 17:56 8,7 C 6,7 C 90 % 1005,3 hPa 0,0 l/m 0 min 2 min 0,0 UV-I 0 W/m 15,4 km/h (3 Bft)
09.01.2014 17:58 8,6 C 6,7 C 90 % 1005,3 hPa 0,0 l/m 0 min 2 min 0,0 UV-I 0 W/m 18,0 km/h (3 Bft)
09.01.2014 18:00 8,6 C 6,1 C 90 % 1005,4 hPa 0,0 l/m 0 min 2 min 0,0 UV-I 0 W/m 12,9 km/h (3 Bft)
09.01.2014 18:02 8,5 C 6,1 C 90 % 1005,5 hPa 0,0 l/m 0 min 2 min 0,0 UV-I 0 W/m 23,2 km/h (4 Bft)
09.01.2014 18:04 8,4 C 6,1 C 90 % 1005,6 hPa 0,0 l/m 0 min 2 min 0,0 UV-I 0 W/m 43,8 km/h (6 Bft)
09.01.2014 18:06 8,3 C 6,1 C 90 % 1005,8 hPa 0,0 l/m 0 min 2 min 0,0 UV-I 0 W/m 43,8 km/h (6 Bft)
09.01.2014 18:08 8,2 C 6,1 C 90 % 1005,8 hPa 0,0 l/m 0 min 2 min 0,0 UV-I 0 W/m 28,3 km/h (4 Bft)
09.01.2014 18:10 8,2 C 6,1 C 90 % 1005,9 hPa 0,0 l/m 0 min 0 min 0,0 UV-I 0 W/m 38,6 km/h (5 Bft)
09.01.2014 18:12 8,1 C 6,1 C 90 % 1006,0 hPa 0,0 l/m 0 min 2 min 0,0 UV-I 0 W/m 23,2 km/h (4 Bft)
09.01.2014 18:14 8,1 C 6,1 C 90 % 1006,0 hPa 0,0 l/m 0 min 0 min 0,0 UV-I 0 W/m 18,0 km/h (3 Bft)
09.01.2014 18:16 8,0 C 6,1 C 90 % 1005,9 hPa 0,0 l/m 0 min 0 min 0,0 UV-I 0 W/m 33,5 km/h (5 Bft)
09.01.2014 18:18 7,9 C 5,6 C 90 % 1006,0 hPa 0,0 l/m 0 min 0 min 0,0 UV-I 0 W/m 23,2 km/h (4 Bft)
09.01.2014 18:20 7,8 C 5,6 C 90 % 1006,1 hPa 0,0 l/m 0 min 0 min 0,0 UV-I 0 W/m 23,2 km/h (4 Bft)
09.01.2014 18:22 7,7 C 5,6 C 89 % 1006,2 hPa 0,0 l/m 0 min 0 min 0,0 UV-I 0 W/m 23,2 km/h (4 Bft)
09.01.2014 18:24 7,7 C 5,6 C 89 % 1006,1 hPa 0,0 l/m 0 min 0 min 0,0 UV-I 0 W/m 25,7 km/h (4 Bft)
09.01.2014 18:26 7,6 C 5,0 C 89 % 1006,2 hPa 0,0 l/m 0 min 0 min 0,0 UV-I 0 W/m 15,4 km/h (3 Bft)
09.01.2014 18:28 7,5 C 5,0 C 88 % 1006,3 hPa 0,0 l/m 0 min 0 min 0,0 UV-I 0 W/m 30,9 km/h (5 Bft)
09.01.2014 18:30 7,4 C 5,0 C 88 % 1006,2 hPa 0,0 l/m 0 min 0 min 0,0 UV-I 0 W/m 20,6 km/h (4 Bft)
09.01.2014 18:32 7,4 C 5,0 C 88 % 1006,1 hPa 0,0 l/m 0 min 0 min 0,0 UV-I 0 W/m 23,2 km/h (4 Bft)
09.01.2014 18:34 7,3 C 5,0 C 88 % 1006,2 hPa 0,0 l/m 0 min 0 min 0,0 UV-I 0 W/m 18,0 km/h (3 Bft)
09.01.2014 18:36 7,3 C 5,0 C 88 % 1006,3 hPa 0,0 l/m 0 min 0 min 0,0 UV-I 0 W/m 15,4 km/h (3 Bft)
09.01.2014 18:38 7,3 C 5,0 C 88 % 1006,3 hPa 0,0 l/m 0 min 0 min 0,0 UV-I 0 W/m 30,9 km/h (5 Bft)
09.01.2014 18:40 7,2 C 5,0 C 88 % 1006,5 hPa 0,0 l/m 0 min 0 min 0,0 UV-I 0 W/m 23,2 km/h (4 Bft)
09.01.2014 18:42 7,2 C 5,0 C 88 % 1006,6 hPa 0,0 l/m 0 min 0 min 0,0 UV-I 0 W/m 23,2 km/h (4 Bft)
09.01.2014 18:44 7,1 C 5,0 C 88 % 1006,6 hPa 0,0 l/m 0 min 0 min 0,0 UV-I 0 W/m 25,7 km/h (4 Bft)
09.01.2014 18:46 7,1 C 5,0 C 88 % 1006,8 hPa 0,0 l/m 0 min 0 min 0,0 UV-I 0 W/m 28,3 km/h (4 Bft)
09.01.2014 18:48 7,0 C 5,0 C 88 % 1006,7 hPa 0,0 l/m 0 min 0 min 0,0 UV-I 0 W/m 18,0 km/h (3 Bft)
09.01.2014 18:50 7,0 C 5,0 C 88 % 1006,8 hPa 0,0 l/m 0 min 0 min 0,0 UV-I 0 W/m 12,9 km/h (3 Bft)
09.01.2014 18:52 6,9 C 5,0 C 88 % 1006,8 hPa 0,0 l/m 0 min 0 min 0,0 UV-I 0 W/m 18,0 km/h (3 Bft)
09.01.2014 18:54 6,9 C 5,0 C 89 % 1007,0 hPa 0,0 l/m 0 min 0 min 0,0 UV-I 0 W/m 28,3 km/h (4 Bft)
09.01.2014 18:56 6,9 C 5,0 C 89 % 1006,9 hPa 0,0 l/m 0 min 0 min 0,0 UV-I 0 W/m 15,4 km/h (3 Bft)
09.01.2014 18:58 6,9 C 5,0 C 89 % 1006,9 hPa 0,0 l/m 0 min 0 min 0,0 UV-I 0 W/m 25,7 km/h (4 Bft)
09.01.2014 19:00 6,9 C 5,0 C 89 % 1007,0 hPa 0,0 l/m 0 min 0 min 0,0 UV-I 0 W/m 25,7 km/h (4 Bft)
09.01.2014 19:02 6,9 C 5,0 C 89 % 1007,0 hPa 0,0 l/m 0 min 0 min 0,0 UV-I 0 W/m 20,6 km/h (4 Bft)
09.01.2014 19:04 6,8 C 5,0 C 89 % 1007,0 hPa 0,0 l/m 0 min 0 min 0,0 UV-I 0 W/m 23,2 km/h (4 Bft)
09.01.2014 19:06 6,8 C 5,0 C 89 % 1007,0 hPa 0,0 l/m 0 min 0 min 0,0 UV-I 0 W/m 30,9 km/h (5 Bft)
09.01.2014 19:08 6,8 C 5,0 C 89 % 1007,1 hPa 0,0 l/m 0 min 0 min 0,0 UV-I 0 W/m 20,6 km/h (4 Bft)
09.01.2014 19:10 6,8 C 5,0 C 89 % 1007,1 hPa 0,0 l/m 0 min 0 min 0,0 UV-I 0 W/m 23,2 km/h (4 Bft)
09.01.2014 19:12 6,8 C 5,0 C 89 % 1007,2 hPa 0,0 l/m 0 min 0 min 0,0 UV-I 0 W/m 20,6 km/h (4 Bft)
09.01.2014 19:14 6,8 C 5,0 C 89 % 1007,2 hPa 0,0 l/m 0 min 0 min 0,0 UV-I 0 W/m 18,0 km/h (3 Bft)
09.01.2014 19:16 6,8 C 5,0 C 88 % 1007,3 hPa 0,0 l/m 0 min 0 min 0,0 UV-I 0 W/m 15,4 km/h (3 Bft)
09.01.2014 19:18 6,8 C 5,0 C 88 % 1007,4 hPa 0,0 l/m 0 min 0 min 0,0 UV-I 0 W/m 12,9 km/h (3 Bft)
09.01.2014 19:20 6,9 C 5,0 C 88 % 1007,5 hPa 0,0 l/m 0 min 0 min 0,0 UV-I 0 W/m 20,6 km/h (4 Bft)
09.01.2014 19:22 6,9 C 5,0 C 88 % 1007,6 hPa 0,0 l/m 0 min 0 min 0,0 UV-I 0 W/m 30,9 km/h (5 Bft)
09.01.2014 19:24 6,9 C 5,0 C 88 % 1007,6 hPa 0,0 l/m 0 min 0 min 0,0 UV-I 0 W/m 18,0 km/h (3 Bft)
09.01.2014 19:26 6,9 C 5,0 C 88 % 1007,8 hPa 0,0 l/m 0 min 0 min 0,0 UV-I 0 W/m 20,6 km/h (4 Bft)
09.01.2014 19:28 6,9 C 5,0 C 88 % 1007,8 hPa 0,0 l/m 0 min 0 min 0,0 UV-I 0 W/m 28,3 km/h (4 Bft)
09.01.2014 19:30 6,9 C 5,0 C 88 % 1007,8 hPa 0,0 l/m 0 min 0 min 0,0 UV-I 0 W/m 15,4 km/h (3 Bft)
09.01.2014 19:32 6,9 C 5,0 C 88 % 1007,9 hPa 0,0 l/m 0 min 0 min 0,0 UV-I 0 W/m 25,7 km/h (4 Bft)
09.01.2014 19:34 6,9 C 5,0 C 88 % 1007,9 hPa 0,0 l/m 0 min 0 min 0,0 UV-I 0 W/m 23,2 km/h (4 Bft)
09.01.2014 19:36 6,9 C 5,0 C 88 % 1007,9 hPa 0,0 l/m 0 min 0 min 0,0 UV-I 0 W/m 20,6 km/h (4 Bft)
09.01.2014 19:38 6,9 C 5,0 C 88 % 1007,9 hPa 0,0 l/m 0 min 0 min 0,0 UV-I 0 W/m 25,7 km/h (4 Bft)
09.01.2014 19:40 6,9 C 5,0 C 88 % 1008,0 hPa 0,0 l/m 0 min 0 min 0,0 UV-I 0 W/m 20,6 km/h (4 Bft)
09.01.2014 19:42 6,9 C 5,0 C 88 % 1008,0 hPa 0,0 l/m 0 min 0 min 0,0 UV-I 0 W/m 25,7 km/h (4 Bft)
09.01.2014 19:44 6,9 C 5,0 C 88 % 1008,1 hPa 0,0 l/m 0 min 0 min 0,0 UV-I 0 W/m 18,0 km/h (3 Bft)
09.01.2014 19:46 6,9 C 5,0 C 88 % 1008,1 hPa 0,0 l/m 0 min 0 min 0,0 UV-I 0 W/m 33,5 km/h (5 Bft)
09.01.2014 19:48 6,9 C 5,0 C 88 % 1008,1 hPa 0,0 l/m 0 min 0 min 0,0 UV-I 0 W/m 18,0 km/h (3 Bft)
09.01.2014 19:50 6,9 C 5,0 C 88 % 1008,2 hPa 0,0 l/m 0 min 0 min 0,0 UV-I 0 W/m 12,9 km/h (3 Bft)
09.01.2014 19:52 6,9 C 5,0 C 88 % 1008,1 hPa 0,0 l/m 0 min 0 min 0,0 UV-I 0 W/m 12,9 km/h (3 Bft)
09.01.2014 19:54 6,9 C 5,0 C 88 % 1008,2 hPa 0,0 l/m 0 min 0 min 0,0 UV-I 0 W/m 23,2 km/h (4 Bft)
09.01.2014 19:56 6,9 C 5,0 C 88 % 1008,3 hPa 0,0 l/m 0 min 0 min 0,0 UV-I 0 W/m 15,4 km/h (3 Bft)
09.01.2014 19:58 6,9 C 5,0 C 88 % 1008,3 hPa 0,0 l/m 0 min 0 min 0,0 UV-I 0 W/m 15,4 km/h (3 Bft)
09.01.2014 20:00 6,9 C 5,0 C 88 % 1008,4 hPa 0,0 l/m 0 min 0 min 0,0 UV-I 0 W/m 20,6 km/h (4 Bft)
09.01.2014 20:02 6,9 C 5,0 C 88 % 1008,5 hPa 0,0 l/m 0 min 0 min 0,0 UV-I 0 W/m 23,2 km/h (4 Bft)
09.01.2014 20:04 6,9 C 5,0 C 88 % 1008,6 hPa 0,0 l/m 0 min 0 min 0,0 UV-I 0 W/m 33,5 km/h (5 Bft)
09.01.2014 20:06 6,9 C 5,0 C 88 % 1008,6 hPa 0,0 l/m 0 min 0 min 0,0 UV-I 0 W/m 10,3 km/h (2 Bft)
09.01.2014 20:08 6,9 C 5,0 C 88 % 1008,6 hPa 0,0 l/m 0 min 0 min 0,0 UV-I 0 W/m 18,0 km/h (3 Bft)
09.01.2014 20:10 6,9 C 5,0 C 88 % 1008,7 hPa 0,0 l/m 0 min 0 min 0,0 UV-I 0 W/m 12,9 km/h (3 Bft)
09.01.2014 20:12 6,8 C 5,0 C 88 % 1008,7 hPa 0,0 l/m 0 min 0 min 0,0 UV-I 0 W/m 20,6 km/h (4 Bft)
09.01.2014 20:14 6,8 C 5,0 C 88 % 1008,7 hPa 0,0 l/m 0 min 0 min 0,0 UV-I 0 W/m 10,3 km/h (2 Bft)
09.01.2014 20:16 6,8 C 5,0 C 88 % 1008,8 hPa 0,0 l/m 0 min 0 min 0,0 UV-I 0 W/m 10,3 km/h (2 Bft)
09.01.2014 20:18 6,8 C 5,0 C 88 % 1008,8 hPa 0,0 l/m 0 min 0 min 0,0 UV-I 0 W/m 28,3 km/h (4 Bft)
09.01.2014 20:20 6,8 C 5,0 C 88 % 1008,8 hPa 0,0 l/m 0 min 0 min 0,0 UV-I 0 W/m 7,7 km/h (2 Bft)
09.01.2014 20:22 6,8 C 5,0 C 88 % 1008,9 hPa 0,0 l/m 0 min 0 min 0,0 UV-I 0 W/m 12,9 km/h (3 Bft)
09.01.2014 20:24 6,8 C 5,0 C 88 % 1008,9 hPa 0,0 l/m 0 min 0 min 0,0 UV-I 0 W/m 10,3 km/h (2 Bft)
09.01.2014 20:26 6,8 C 5,0 C 88 % 1008,9 hPa 0,0 l/m 0 min 2 min 0,0 UV-I 0 W/m 25,7 km/h (4 Bft)
09.01.2014 20:28 6,8 C 5,0 C 88 % 1009,0 hPa 0,0 l/m 0 min 2 min 0,0 UV-I 0 W/m 23,2 km/h (4 Bft)
09.01.2014 20:30 6,8 C 5,0 C 88 % 1009,0 hPa 0,0 l/m 0 min 2 min 0,0 UV-I 0 W/m 18,0 km/h (3 Bft)
09.01.2014 20:32 6,8 C 5,0 C 88 % 1009,1 hPa 0,0 l/m 0 min 2 min 0,0 UV-I 0 W/m 15,4 km/h (3 Bft)
09.01.2014 20:34 6,8 C 5,0 C 88 % 1009,1 hPa 0,0 l/m 0 min 2 min 0,0 UV-I 0 W/m 18,0 km/h (3 Bft)
09.01.2014 20:36 6,8 C 5,0 C 88 % 1009,1 hPa 0,0 l/m 0 min 2 min 0,0 UV-I 0 W/m 7,7 km/h (2 Bft)
09.01.2014 20:38 6,8 C 5,0 C 89 % 1009,2 hPa 0,0 l/m 0 min 2 min 0,0 UV-I 0 W/m 20,6 km/h (4 Bft)
09.01.2014 20:40 6,8 C 5,0 C 89 % 1009,2 hPa 0,0 l/m 0 min 2 min 0,0 UV-I 0 W/m 18,0 km/h (3 Bft)
09.01.2014 20:42 6,7 C 5,0 C 89 % 1009,2 hPa 0,0 l/m 0 min 2 min 0,0 UV-I 0 W/m 23,2 km/h (4 Bft)
09.01.2014 20:44 6,7 C 4,4 C 89 % 1009,3 hPa 0,2 l/m 0 min 2 min 0,0 UV-I 0 W/m 7,7 km/h (2 Bft)
09.01.2014 20:46 6,7 C 4,4 C 89 % 1009,3 hPa 0,0 l/m 0 min 2 min 0,0 UV-I 0 W/m 15,4 km/h (3 Bft)
09.01.2014 20:48 6,7 C 4,4 C 89 % 1009,3 hPa 0,0 l/m 0 min 2 min 0,0 UV-I 0 W/m 20,6 km/h (4 Bft)
09.01.2014 20:50 6,7 C 4,4 C 89 % 1009,3 hPa 0,0 l/m 0 min 2 min 0,0 UV-I 0 W/m 7,7 km/h (2 Bft)
09.01.2014 20:52 6,6 C 4,4 C 89 % 1009,3 hPa 0,0 l/m 0 min 0 min 0,0 UV-I 0 W/m 2,6 km/h (1 Bft)
09.01.2014 20:54 6,6 C 4,4 C 89 % 1009,4 hPa 0,0 l/m 0 min 0 min 0,0 UV-I 0 W/m 7,7 km/h (2 Bft)
09.01.2014 20:56 6,6 C 4,4 C 89 % 1009,4 hPa 0,0 l/m 0 min 0 min 0,0 UV-I 0 W/m 15,4 km/h (3 Bft)
09.01.2014 20:58 6,5 C 4,4 C 89 % 1009,3 hPa 0,0 l/m 0 min 0 min 0,0 UV-I 0 W/m 10,3 km/h (2 Bft)
09.01.2014 21:00 6,5 C 4,4 C 89 % 1009,3 hPa 0,0 l/m 0 min 0 min 0,0 UV-I 0 W/m 5,1 km/h (1 Bft)
09.01.2014 21:02 6,4 C 4,4 C 89 % 1009,5 hPa 0,0 l/m 0 min 0 min 0,0 UV-I 0 W/m 7,7 km/h (2 Bft)
09.01.2014 21:04 6,4 C 4,4 C 89 % 1009,4 hPa 0,0 l/m 0 min 0 min 0,0 UV-I 0 W/m 7,7 km/h (2 Bft)
09.01.2014 21:06 6,4 C 4,4 C 89 % 1009,4 hPa 0,0 l/m 0 min 0 min 0,0 UV-I 0 W/m 15,4 km/h (3 Bft)
09.01.2014 21:08 6,4 C 4,4 C 89 % 1009,5 hPa 0,0 l/m 0 min 0 min 0,0 UV-I 0 W/m 15,4 km/h (3 Bft)
09.01.2014 21:10 6,4 C 4,4 C 89 % 1009,5 hPa 0,0 l/m 0 min 0 min 0,0 UV-I 0 W/m 12,9 km/h (3 Bft)
09.01.2014 21:12 6,4 C 4,4 C 89 % 1009,5 hPa 0,0 l/m 0 min 0 min 0,0 UV-I 0 W/m 7,7 km/h (2 Bft)
09.01.2014 21:14 6,3 C 4,4 C 89 % 1009,5 hPa 0,0 l/m 0 min 0 min 0,0 UV-I 0 W/m 15,4 km/h (3 Bft)
09.01.2014 21:16 6,3 C 4,4 C 89 % 1009,6 hPa 0,0 l/m 0 min 0 min 0,0 UV-I 0 W/m 12,9 km/h (3 Bft)
09.01.2014 21:18 6,3 C 4,4 C 88 % 1009,7 hPa 0,0 l/m 0 min 0 min 0,0 UV-I 0 W/m 12,9 km/h (3 Bft)
09.01.2014 21:20 6,3 C 4,4 C 89 % 1009,7 hPa 0,0 l/m 0 min 0 min 0,0 UV-I 0 W/m 7,7 km/h (2 Bft)
09.01.2014 21:22 6,3 C 4,4 C 89 % 1009,7 hPa 0,0 l/m 0 min 0 min 0,0 UV-I 0 W/m 5,1 km/h (1 Bft)
09.01.2014 21:24 6,4 C 4,4 C 89 % 1009,7 hPa 0,0 l/m 0 min 0 min 0,0 UV-I 0 W/m 7,7 km/h (2 Bft)
09.01.2014 21:26 6,4 C 4,4 C 88 % 1009,8 hPa 0,0 l/m 0 min 0 min 0,0 UV-I 0 W/m 0,0 km/h (0 Bft)
09.01.2014 21:28 6,4 C 4,4 C 88 % 1009,8 hPa 0,0 l/m 0 min 0 min 0,0 UV-I 0 W/m 18,0 km/h (3 Bft)
09.01.2014 21:30 6,4 C 4,4 C 88 % 1009,8 hPa 0,0 l/m 0 min 0 min 0,0 UV-I 0 W/m 15,4 km/h (3 Bft)
09.01.2014 21:32 6,4 C 4,4 C 88 % 1009,9 hPa 0,0 l/m 0 min 0 min 0,0 UV-I 0 W/m 10,3 km/h (2 Bft)
09.01.2014 21:34 6,4 C 4,4 C 88 % 1009,9 hPa 0,0 l/m 0 min 0 min 0,0 UV-I 0 W/m 15,4 km/h (3 Bft)
09.01.2014 21:36 6,4 C 4,4 C 88 % 1010,0 hPa 0,0 l/m 0 min 0 min 0,0 UV-I 0 W/m 23,2 km/h (4 Bft)
09.01.2014 21:38 6,4 C 4,4 C 88 % 1009,9 hPa 0,0 l/m 0 min 0 min 0,0 UV-I 0 W/m 10,3 km/h (2 Bft)
09.01.2014 21:40 6,4 C 4,4 C 88 % 1009,9 hPa 0,0 l/m 0 min 0 min 0,0 UV-I 0 W/m 7,7 km/h (2 Bft)
09.01.2014 21:42 6,4 C 4,4 C 88 % 1009,9 hPa 0,0 l/m 0 min 0 min 0,0 UV-I 0 W/m 12,9 km/h (3 Bft)
09.01.2014 21:44 6,4 C 4,4 C 88 % 1010,0 hPa 0,0 l/m 0 min 0 min 0,0 UV-I 0 W/m 12,9 km/h (3 Bft)
09.01.2014 21:46 6,4 C 4,4 C 88 % 1010,0 hPa 0,0 l/m 0 min 0 min 0,0 UV-I 0 W/m 10,3 km/h (2 Bft)
09.01.2014 21:48 6,4 C 4,4 C 87 % 1010,0 hPa 0,0 l/m 0 min 0 min 0,0 UV-I 0 W/m 5,1 km/h (1 Bft)
09.01.2014 21:50 6,3 C 4,4 C 87 % 1010,0 hPa 0,0 l/m 0 min 0 min 0,0 UV-I 0 W/m 10,3 km/h (2 Bft)
09.01.2014 21:52 6,3 C 4,4 C 87 % 1010,1 hPa 0,0 l/m 0 min 0 min 0,0 UV-I 0 W/m 7,7 km/h (2 Bft)
09.01.2014 21:54 6,3 C 4,4 C 87 % 1010,1 hPa 0,0 l/m 0 min 0 min 0,0 UV-I 0 W/m 12,9 km/h (3 Bft)
09.01.2014 21:56 6,3 C 4,4 C 87 % 1010,2 hPa 0,0 l/m 0 min 0 min 0,0 UV-I 0 W/m 15,4 km/h (3 Bft)
09.01.2014 21:58 6,3 C 4,4 C 87 % 1010,3 hPa 0,0 l/m 0 min 0 min 0,0 UV-I 0 W/m 15,4 km/h (3 Bft)
09.01.2014 22:00 6,3 C 4,4 C 87 % 1010,3 hPa 0,0 l/m 0 min 0 min 0,0 UV-I 0 W/m 12,9 km/h (3 Bft)
09.01.2014 22:02 6,2 C 4,4 C 87 % 1010,2 hPa 0,0 l/m 0 min 0 min 0,0 UV-I 0 W/m 7,7 km/h (2 Bft)
09.01.2014 22:04 6,2 C 4,4 C 87 % 1010,4 hPa 0,0 l/m 0 min 0 min 0,0 UV-I 0 W/m 10,3 km/h (2 Bft)
09.01.2014 22:06 6,2 C 4,4 C 87 % 1010,3 hPa 0,0 l/m 0 min 0 min 0,0 UV-I 0 W/m 18,0 km/h (3 Bft)
09.01.2014 22:08 6,2 C 4,4 C 87 % 1010,4 hPa 0,0 l/m 0 min 0 min 0,0 UV-I 0 W/m 15,4 km/h (3 Bft)
09.01.2014 22:10 6,2 C 4,4 C 87 % 1010,3 hPa 0,0 l/m 0 min 0 min 0,0 UV-I 0 W/m 5,1 km/h (1 Bft)
09.01.2014 22:12 6,2 C 4,4 C 87 % 1010,3 hPa 0,0 l/m 0 min 0 min 0,0 UV-I 0 W/m 10,3 km/h (2 Bft)
09.01.2014 22:14 6,2 C 4,4 C 87 % 1010,4 hPa 0,0 l/m 0 min 0 min 0,0 UV-I 0 W/m 12,9 km/h (3 Bft)
09.01.2014 22:16 6,2 C 4,4 C 87 % 1010,4 hPa 0,0 l/m 0 min 0 min 0,0 UV-I 0 W/m 10,3 km/h (2 Bft)
09.01.2014 22:18 6,2 C 4,4 C 87 % 1010,5 hPa 0,0 l/m 0 min 0 min 0,0 UV-I 0 W/m 12,9 km/h (3 Bft)
09.01.2014 22:20 6,2 C 4,4 C 87 % 1010,5 hPa 0,0 l/m 0 min 0 min 0,0 UV-I 0 W/m 2,6 km/h (1 Bft)
09.01.2014 22:22 6,2 C 4,4 C 87 % 1010,5 hPa 0,0 l/m 0 min 0 min 0,0 UV-I 0 W/m 15,4 km/h (3 Bft)
09.01.2014 22:24 6,2 C 4,4 C 87 % 1010,6 hPa 0,0 l/m 0 min 0 min 0,0 UV-I 0 W/m 7,7 km/h (2 Bft)
09.01.2014 22:26 6,2 C 4,4 C 87 % 1010,5 hPa 0,0 l/m 0 min 0 min 0,0 UV-I 0 W/m 7,7 km/h (2 Bft)
09.01.2014 22:28 6,2 C 4,4 C 87 % 1010,6 hPa 0,0 l/m 0 min 0 min 0,0 UV-I 0 W/m 18,0 km/h (3 Bft)
09.01.2014 22:30 6,2 C 4,4 C 87 % 1010,7 hPa 0,0 l/m 0 min 2 min 0,0 UV-I 0 W/m 10,3 km/h (2 Bft)
09.01.2014 22:32 6,2 C 4,4 C 87 % 1010,7 hPa 0,0 l/m 0 min 0 min 0,0 UV-I 0 W/m 10,3 km/h (2 Bft)
09.01.2014 22:34 6,2 C 4,4 C 87 % 1010,7 hPa 0,0 l/m 0 min 0 min 0,0 UV-I 0 W/m 12,9 km/h (3 Bft)
09.01.2014 22:36 6,2 C 4,4 C 87 % 1010,7 hPa 0,0 l/m 0 min 0 min 0,0 UV-I 0 W/m 5,1 km/h (1 Bft)
09.01.2014 22:38 6,2 C 4,4 C 87 % 1010,7 hPa 0,0 l/m 0 min 0 min 0,0 UV-I 0 W/m 12,9 km/h (3 Bft)
09.01.2014 22:40 6,2 C 4,4 C 87 % 1010,8 hPa 0,0 l/m 0 min 0 min 0,0 UV-I 0 W/m 15,4 km/h (3 Bft)
09.01.2014 22:42 6,2 C 4,4 C 87 % 1010,8 hPa 0,0 l/m 0 min 2 min 0,0 UV-I 0 W/m 20,6 km/h (4 Bft)
09.01.2014 22:44 6,3 C 4,4 C 87 % 1010,8 hPa 0,0 l/m 0 min 0 min 0,0 UV-I 0 W/m 10,3 km/h (2 Bft)
09.01.2014 22:46 6,3 C 5,0 C 86 % 1010,8 hPa 0,0 l/m 0 min 0 min 0,0 UV-I 0 W/m 10,3 km/h (2 Bft)
09.01.2014 22:48 6,3 C 5,0 C 87 % 1010,8 hPa 0,0 l/m 0 min 0 min 0,0 UV-I 0 W/m 5,1 km/h (1 Bft)
09.01.2014 22:50 6,3 C 5,0 C 87 % 1010,9 hPa 0,0 l/m 0 min 2 min 0,0 UV-I 0 W/m 20,6 km/h (4 Bft)
09.01.2014 22:52 6,3 C 5,0 C 87 % 1011,0 hPa 0,0 l/m 0 min 2 min 0,0 UV-I 0 W/m 10,3 km/h (2 Bft)
09.01.2014 22:54 6,4 C 4,4 C 87 % 1011,1 hPa 0,0 l/m 0 min 2 min 0,0 UV-I 0 W/m 12,9 km/h (3 Bft)
09.01.2014 22:56 6,4 C 4,4 C 87 % 1011,1 hPa 0,0 l/m 0 min 2 min 0,0 UV-I 0 W/m 7,7 km/h (2 Bft)
09.01.2014 22:58 6,4 C 4,4 C 87 % 1011,1 hPa 0,0 l/m 0 min 2 min 0,0 UV-I 0 W/m 7,7 km/h (2 Bft)
09.01.2014 23:00 6,4 C 4,4 C 87 % 1011,1 hPa 0,0 l/m 0 min 2 min 0,0 UV-I 0 W/m 5,1 km/h (1 Bft)
09.01.2014 23:02 6,4 C 4,4 C 87 % 1011,0 hPa 0,0 l/m 0 min 2 min 0,0 UV-I 0 W/m 18,0 km/h (3 Bft)
09.01.2014 23:04 6,4 C 4,4 C 88 % 1011,0 hPa 0,0 l/m 0 min 2 min 0,0 UV-I 0 W/m 7,7 km/h (2 Bft)
09.01.2014 23:06 6,4 C 4,4 C 88 % 1011,0 hPa 0,0 l/m 0 min 0 min 0,0 UV-I 0 W/m 10,3 km/h (2 Bft)
09.01.2014 23:08 6,3 C 4,4 C 88 % 1011,1 hPa 0,0 l/m 0 min 0 min 0,0 UV-I 0 W/m 10,3 km/h (2 Bft)
09.01.2014 23:10 6,3 C 4,4 C 88 % 1011,0 hPa 0,0 l/m 0 min 2 min 0,0 UV-I 0 W/m 2,6 km/h (1 Bft)
09.01.2014 23:12 6,3 C 4,4 C 88 % 1011,1 hPa 0,0 l/m 0 min 2 min 0,0 UV-I 0 W/m 0,0 km/h (0 Bft)
09.01.2014 23:14 6,3 C 4,4 C 88 % 1011,0 hPa 0,0 l/m 0 min 0 min 0,0 UV-I 0 W/m 15,4 km/h (3 Bft)
09.01.2014 23:16 6,3 C 4,4 C 88 % 1011,1 hPa 0,0 l/m 0 min 0 min 0,0 UV-I 0 W/m 18,0 km/h (3 Bft)
09.01.2014 23:18 6,3 C 4,4 C 88 % 1011,0 hPa 0,0 l/m 0 min 0 min 0,0 UV-I 0 W/m 15,4 km/h (3 Bft)
09.01.2014 23:20 6,3 C 4,4 C 88 % 1011,0 hPa 0,0 l/m 0 min 0 min 0,0 UV-I 0 W/m 7,7 km/h (2 Bft)
09.01.2014 23:22 6,2 C 4,4 C 88 % 1011,1 hPa 0,0 l/m 0 min 0 min 0,0 UV-I 0 W/m 12,9 km/h (3 Bft)
09.01.2014 23:24 6,2 C 3,9 C 88 % 1011,1 hPa 0,0 l/m 0 min 0 min 0,0 UV-I 0 W/m 7,7 km/h (2 Bft)
09.01.2014 23:26 6,2 C 3,9 C 88 % 1011,2 hPa 0,0 l/m 0 min 0 min 0,0 UV-I 0 W/m 7,7 km/h (2 Bft)
09.01.2014 23:28 6,2 C 3,9 C 88 % 1011,2 hPa 0,0 l/m 0 min 0 min 0,0 UV-I 0 W/m 10,3 km/h (2 Bft)
09.01.2014 23:30 6,2 C 3,9 C 88 % 1011,1 hPa 0,0 l/m 0 min 0 min 0,0 UV-I 0 W/m 15,4 km/h (3 Bft)
09.01.2014 23:32 6,2 C 3,9 C 88 % 1011,1 hPa 0,0 l/m 0 min 0 min 0,0 UV-I 0 W/m 12,9 km/h (3 Bft)
09.01.2014 23:34 6,2 C 4,4 C 88 % 1011,1 hPa 0,0 l/m 0 min 0 min 0,0 UV-I 0 W/m 12,9 km/h (3 Bft)
09.01.2014 23:36 6,2 C 4,4 C 87 % 1011,1 hPa 0,0 l/m 0 min 0 min 0,0 UV-I 0 W/m 12,9 km/h (3 Bft)
09.01.2014 23:38 6,2 C 4,4 C 87 % 1011,1 hPa 0,0 l/m 0 min 0 min 0,0 UV-I 0 W/m 10,3 km/h (2 Bft)
09.01.2014 23:40 6,2 C 4,4 C 87 % 1011,1 hPa 0,0 l/m 0 min 0 min 0,0 UV-I 0 W/m 12,9 km/h (3 Bft)
09.01.2014 23:42 6,2 C 4,4 C 87 % 1011,1 hPa 0,0 l/m 0 min 0 min 0,0 UV-I 0 W/m 10,3 km/h (2 Bft)
09.01.2014 23:44 6,2 C 4,4 C 87 % 1011,2 hPa 0,0 l/m 0 min 0 min 0,0 UV-I 0 W/m 10,3 km/h (2 Bft)
09.01.2014 23:46 6,2 C 4,4 C 87 % 1011,1 hPa 0,0 l/m 0 min 0 min 0,0 UV-I 0 W/m 12,9 km/h (3 Bft)
09.01.2014 23:48 6,2 C 4,4 C 87 % 1011,2 hPa 0,0 l/m 0 min 0 min 0,0 UV-I 0 W/m 10,3 km/h (2 Bft)
09.01.2014 23:50 6,2 C 4,4 C 87 % 1011,3 hPa 0,0 l/m 0 min 0 min 0,0 UV-I 0 W/m 10,3 km/h (2 Bft)
09.01.2014 23:52 6,2 C 4,4 C 87 % 1011,2 hPa 0,0 l/m 0 min 0 min 0,0 UV-I 0 W/m 12,9 km/h (3 Bft)
09.01.2014 23:54 6,2 C 4,4 C 87 % 1011,2 hPa 0,0 l/m 0 min 0 min 0,0 UV-I 0 W/m 12,9 km/h (3 Bft)
09.01.2014 23:56 6,2 C 4,4 C 87 % 1011,3 hPa 0,0 l/m 0 min 0 min 0,0 UV-I 0 W/m 10,3 km/h (2 Bft)
09.01.2014 23:58 6,2 C 4,4 C 87 % 1011,2 hPa 0,0 l/m 0 min 0 min 0,0 UV-I 0 W/m 12,9 km/h (3 Bft)
_ Min-Zeit 22:02 23:24 15:54 14:42 - - - - - 01:36
Minimum _ 6,2 C 3,9 C 76 % 1003,0 hPa - - - - - 0,0 km/h (0 Bft)
_ Max-Zeit 11:00 12:16 06:30 00:00 17:38 00:00 02:42 00:00 14:44 10:52
Maximum _ 12,7 C 10,6 C 98 % 1014,4 hPa 0,4 l/m 0 min 2 min 0,0 UV-I 100 W/m 51,5 km/h
S-SO (7 Bft)
Durchschnitt _ 9,2 C 7,4 C 89 % 1007,6 hPa #3,6 l/m #0 min. #5:40 h 0,0 UV-I 44 W/m 17,4 km/h (3 Bft)
© 2014 W. Hausmann